| time (UTC) | temp C | wind direction | speed KPH | gust KPH | rain 1hr cm | rain 24hr cm | rain mn cm | humidity % | barometer mb |
| 20260507231751 | 16 | 219 | 1.6 | 9.7 | 0.00 | 0.00 | 0.00 | 80 | 1012.6 |
| 20260507231701 | 16 | 244 | 1.6 | 9.7 | 0.00 | 0.00 | 0.00 | 80 | 1012.6 |
| 20260507231034 | 16 | 234 | 3.2 | 11.3 | 0.00 | 0.00 | 0.00 | 80 | 1012.7 |
| 20260507230805 | 16 | 211 | 4.8 | 11.3 | 0.00 | 0.00 | 0.00 | 80 | 1012.6 |
| 20260507230630 | 16 | 214 | 4.8 | 11.3 | 0.00 | 0.00 | 0.00 | 80 | 1012.7 |
| 20260507230606 | 16 | 232 | 4.8 | 11.3 | 0.00 | 0.00 | 0.00 | 80 | 1012.7 |
| 20260507230406 | 16 | 237 | 4.8 | 11.3 | 0.00 | 0.00 | 0.00 | 80 | 1012.8 |
| 20260507230209 | 16 | 250 | 4.8 | 11.3 | 0.00 | 0.00 | 0.00 | 81 | 1012.7 |
| 20260507230130 | 16 | 242 | 4.8 | 11.3 | 0.00 | 0.00 | 0.00 | 81 | 1012.7 |
| 20260507230005 | 16 | 228 | 4.8 | 11.3 | 0.00 | 0.00 | 0.00 | 81 | 1012.7 |
| 20260507225805 | 16 | 236 | 4.8 | 11.3 | 0.00 | 0.00 | 0.00 | 81 | 1012.7 |
| 20260507225633 | 16 | 233 | 4.8 | 12.9 | 0.00 | 0.00 | 0.00 | 81 | 1012.8 |
| 20260507225605 | 16 | 228 | 6.4 | 12.9 | 0.00 | 0.00 | 0.00 | 81 | 1012.8 |
| 20260507225405 | 16 | 241 | 6.4 | 12.9 | 0.00 | 0.00 | 0.00 | 81 | 1012.8 |
| 20260507225206 | 15 | 250 | 6.4 | 12.9 | 0.00 | 0.00 | 0.00 | 81 | 1012.8 |
| 20260507225129 | 15 | 257 | 6.4 | 12.9 | 0.00 | 0.00 | 0.00 | 81 | 1012.8 |
| 20260507225005 | 15 | 225 | 6.4 | 12.9 | 0.00 | 0.00 | 0.00 | 81 | 1012.8 |
| 20260507224816 | 15 | 225 | 6.4 | 12.9 | 0.00 | 0.00 | 0.00 | 81 | 1012.8 |
| 20260507224727 | 15 | 210 | 6.4 | 11.3 | 0.00 | 0.00 | 0.00 | 81 | 1012.9 |
| 20260507224712 | 15 | 244 | 6.4 | 11.3 | 0.00 | 0.00 | 0.00 | 81 | 1012.8 |
| 20260507224207 | 15 | 243 | 6.4 | 11.3 | 0.00 | 0.00 | 0.00 | 81 | 1012.8 |
| 20260507224132 | 15 | 238 | 6.4 | 11.3 | 0.00 | 0.00 | 0.00 | 81 | 1012.8 |
| 20260507224013 | 15 | 232 | 6.4 | 14.5 | 0.00 | 0.00 | 0.00 | 81 | 1012.8 |
| 20260507223807 | 15 | 219 | 6.4 | 14.5 | 0.00 | 0.00 | 0.00 | 81 | 1012.8 |
| 20260507223631 | 15 | 222 | 6.4 | 14.5 | 0.00 | 0.00 | 0.00 | 81 | 1012.8 |
| 20260507223559 | 15 | 231 | 6.4 | 14.5 | 0.00 | 0.00 | 0.00 | 81 | 1012.8 |
| 20260507223401 | 15 | 231 | 8.0 | 14.5 | 0.00 | 0.00 | 0.00 | 81 | 1012.8 |
| 20260507223247 | 15 | 242 | 6.4 | 14.5 | 0.00 | 0.00 | 0.00 | 80 | 1012.9 |
| 20260507223224 | 15 | 190 | 6.4 | 14.5 | 0.00 | 0.00 | 0.00 | 80 | 1012.9 |
| 20260507223141 | 15 | 228 | 6.4 | 14.5 | 0.00 | 0.00 | 0.00 | 80 | 1012.8 |
| 20260507223045 | 15 | 221 | 6.4 | 14.5 | 0.00 | 0.00 | 0.00 | 80 | 1012.9 |
| 20260507222957 | 15 | 238 | 6.4 | 14.5 | 0.00 | 0.00 | 0.00 | 80 | 1013.0 |
| 20260507222636 | 15 | 224 | 4.8 | 14.5 | 0.00 | 0.00 | 0.00 | 80 | 1012.9 |
| 20260507222318 | 16 | 242 | 4.8 | 14.5 | 0.00 | 0.00 | 0.00 | 80 | 1012.9 |
| 20260507221920 | 16 | 233 | 4.8 | 12.9 | 0.00 | 0.00 | 0.00 | 80 | 1013.0 |
| 20260507221555 | 16 | 225 | 4.8 | 12.9 | 0.00 | 0.00 | 0.00 | 80 | 1013.0 |
| 20260507221352 | 16 | 209 | 4.8 | 12.9 | 0.00 | 0.00 | 0.00 | 80 | 1013.1 |
| 20260507221151 | 16 | 228 | 3.2 | 12.9 | 0.00 | 0.00 | 0.00 | 80 | 1013.0 |
| 20260507221134 | 16 | 239 | 3.2 | 12.9 | 0.00 | 0.00 | 0.00 | 80 | 1013.0 |
| 20260507221015 | 16 | 221 | 1.6 | 11.3 | 0.00 | 0.00 | 0.00 | 80 | 1013.1 |
| 20260507220845 | 16 | 230 | 1.6 | 8.0 | 0.00 | 0.00 | 0.00 | 80 | 1013.1 |
| 20260507220809 | 16 | 226 | 1.6 | 8.0 | 0.00 | 0.00 | 0.00 | 80 | 1013.1 |
| 20260507220744 | 16 | 239 | 1.6 | 8.0 | 0.00 | 0.00 | 0.00 | 80 | 1013.0 |
| 20260507220654 | 16 | 225 | 1.6 | 9.7 | 0.00 | 0.00 | 0.00 | 80 | 1013.1 |
| 20260507215946 | 16 | 248 | 3.2 | 11.3 | 0.00 | 0.00 | 0.00 | 80 | 1013.0 |
| 20260507215746 | 16 | 248 | 3.2 | 11.3 | 0.00 | 0.00 | 0.00 | 80 | 1013.1 |
| 20260507215710 | 16 | 248 | 3.2 | 11.3 | 0.00 | 0.00 | 0.00 | 80 | 1013.1 |
| 20260507215644 | 16 | 241 | 4.8 | 11.3 | 0.00 | 0.00 | 0.00 | 80 | 1013.2 |
| 20260507215214 | 16 | 244 | 3.2 | 11.3 | 0.00 | 0.00 | 0.00 | 80 | 1013.2 |
| 20260507215201 | 16 | 232 | 3.2 | 11.3 | 0.00 | 0.00 | 0.00 | 80 | 1013.2 |
| 20260507215112 | 16 | 251 | 3.2 | 11.3 | 0.00 | 0.00 | 0.00 | 80 | 1013.2 |
| 20260507214733 | 16 | 267 | 4.8 | 11.3 | 0.00 | 0.00 | 0.00 | 80 | 1013.3 |
| 20260507214706 | 16 | 263 | 3.2 | 11.3 | 0.00 | 0.00 | 0.00 | 80 | 1013.2 |
| 20260507214608 | 16 | 214 | 3.2 | 11.3 | 0.00 | 0.00 | 0.00 | 80 | 1013.1 |
| 20260507214519 | 16 | 240 | 3.2 | 11.3 | 0.00 | 0.00 | 0.00 | 80 | 1013.1 |
| 20260507213742 | 16 | 243 | 3.2 | 11.3 | 0.00 | 0.00 | 0.00 | 80 | 1013.0 |
| 20260507213632 | 16 | 240 | 3.2 | 11.3 | 0.00 | 0.00 | 0.00 | 80 | 1013.0 |
| 20260507213541 | 16 | 244 | 3.2 | 11.3 | 0.00 | 0.00 | 0.00 | 80 | 1013.0 |
| 20260507213341 | 16 | 225 | 3.2 | 11.3 | 0.00 | 0.00 | 0.00 | 80 | 1013.0 |
| 20260507213132 | 16 | 242 | 3.2 | 11.3 | 0.00 | 0.00 | 0.00 | 80 | 1013.0 |
| 20260507212941 | 16 | 241 | 4.8 | 11.3 | 0.00 | 0.00 | 0.00 | 80 | 1012.9 |
| 20260507212740 | 16 | 225 | 4.8 | 11.3 | 0.00 | 0.00 | 0.00 | 80 | 1013.0 |
| 20260507212634 | 16 | 227 | 4.8 | 11.3 | 0.00 | 0.00 | 0.00 | 80 | 1012.9 |
| 20260507212552 | 16 | 244 | 4.8 | 11.3 | 0.00 | 0.00 | 0.00 | 80 | 1012.9 |
| 20260507212338 | 16 | 238 | 4.8 | 12.9 | 0.00 | 0.00 | 0.00 | 80 | 1012.9 |
| 20260507212142 | 16 | 225 | 4.8 | 12.9 | 0.00 | 0.00 | 0.00 | 80 | 1012.9 |
| 20260507212132 | 16 | 247 | 4.8 | 12.9 | 0.00 | 0.00 | 0.00 | 80 | 1012.9 |
| 20260507211938 | 16 | 225 | 4.8 | 12.9 | 0.00 | 0.00 | 0.00 | 80 | 1012.9 |
| 20260507211737 | 16 | 219 | 4.8 | 12.9 | 0.00 | 0.00 | 0.00 | 80 | 1013.0 |
| 20260507211629 | 16 | 261 | 6.4 | 12.9 | 0.00 | 0.00 | 0.00 | 80 | 1012.9 |
| 20260507211540 | 16 | 214 | 4.8 | 12.9 | 0.00 | 0.00 | 0.00 | 80 | 1012.9 |
| 20260507211337 | 16 | 230 | 4.8 | 12.9 | 0.00 | 0.00 | 0.00 | 80 | 1012.9 |
| 20260507211149 | 16 | 249 | 4.8 | 11.3 | 0.00 | 0.00 | 0.00 | 80 | 1013.0 |
| 20260507211138 | 16 | 228 | 4.8 | 11.3 | 0.00 | 0.00 | 0.00 | 80 | 1013.0 |
| 20260507211045 | 16 | 232 | 4.8 | 11.3 | 0.00 | 0.00 | 0.00 | 80 | 1012.9 |
| 20260507210941 | 16 | 236 | 4.8 | 11.3 | 0.00 | 0.00 | 0.00 | 80 | 1013.0 |
| 20260507210540 | 16 | 206 | 4.8 | 11.3 | 0.00 | 0.00 | 0.00 | 80 | 1012.9 |
| 20260507210444 | 16 | 230 | 6.4 | 12.9 | 0.00 | 0.00 | 0.00 | 80 | 1013.0 |
| 20260507210129 | 16 | 234 | 6.4 | 12.9 | 0.00 | 0.00 | 0.00 | 80 | 1013.0 |
| 20260507205937 | 16 | 213 | 8.0 | 12.9 | 0.00 | 0.00 | 0.00 | 80 | 1013.0 |
| 20260507205742 | 16 | 234 | 8.0 | 12.9 | 0.00 | 0.00 | 0.00 | 80 | 1013.0 |
| 20260507205709 | 16 | 212 | 8.0 | 14.5 | 0.00 | 0.00 | 0.00 | 80 | 1013.0 |
| 20260507205640 | 16 | 232 | 8.0 | 14.5 | 0.00 | 0.00 | 0.00 | 80 | 1013.0 |
| 20260507205135 | 16 | 234 | 6.4 | 14.5 | 0.00 | 0.00 | 0.00 | 80 | 1013.0 |
| 20260507205009 | 16 | 238 | 6.4 | 14.5 | 0.00 | 0.00 | 0.00 | 80 | 1013.0 |
| 20260507204909 | 16 | 232 | 6.4 | 14.5 | 0.00 | 0.00 | 0.00 | 80 | 1013.0 |
| 20260507204537 | 16 | 234 | 6.4 | 11.3 | 0.00 | 0.00 | 0.00 | 80 | 1013.1 |
| 20260507204335 | 16 | 199 | 6.4 | 11.3 | 0.00 | 0.00 | 0.00 | 80 | 1013.0 |
| 20260507204136 | 16 | 239 | 6.4 | 11.3 | 0.00 | 0.00 | 0.00 | 80 | 1013.1 |
| 20260507203936 | 16 | 243 | 6.4 | 11.3 | 0.00 | 0.00 | 0.00 | 80 | 1013.0 |
| 20260507203825 | 16 | 219 | 6.4 | 12.9 | 0.00 | 0.00 | 0.00 | 80 | 1013.0 |
| 20260507203753 | 16 | 209 | 6.4 | 12.9 | 0.00 | 0.00 | 0.00 | 80 | 1013.1 |
| 20260507203652 | 16 | 230 | 4.8 | 12.9 | 0.00 | 0.00 | 0.00 | 80 | 1013.0 |
| 20260507203254 | 16 | 223 | 4.8 | 12.9 | 0.00 | 0.00 | 0.00 | 80 | 1013.0 |
| 20260507202844 | 16 | 209 | 3.2 | 11.3 | 0.00 | 0.00 | 0.00 | 80 | 1013.1 |
| 20260507202818 | 16 | 219 | 3.2 | 11.3 | 0.00 | 0.00 | 0.00 | 80 | 1013.1 |
| 20260507202342 | 16 | 226 | 1.6 | 8.0 | 0.00 | 0.00 | 0.00 | 80 | 1013.1 |
| 20260507202242 | 16 | 262 | 1.6 | 8.0 | 0.00 | 0.00 | 0.00 | 80 | 1013.1 |
| 20260507201735 | 16 | 215 | 3.2 | 11.3 | 0.00 | 0.00 | 0.00 | 80 | 1013.1 |
| 20260507201630 | 16 | 213 | 3.2 | 11.3 | 0.00 | 0.00 | 0.00 | 80 | 1013.1 |
| 20260507201540 | 16 | 213 | 4.8 | 11.3 | 0.00 | 0.00 | 0.00 | 80 | 1013.1 |
| 20260507201411 | 16 | 226 | 4.8 | 11.3 | 0.00 | 0.00 | 0.00 | 80 | 1013.0 |
| 20260507201316 | 16 | 230 | 4.8 | 11.3 | 0.00 | 0.00 | 0.00 | 80 | 1013.1 |
| 20260507200906 | 16 | 223 | 4.8 | 12.9 | 0.00 | 0.00 | 0.00 | 81 | 1013.0 |
| 20260507200836 | 16 | 231 | 6.4 | 12.9 | 0.00 | 0.00 | 0.00 | 81 | 1013.0 |
| 20260507200810 | 16 | 232 | 6.4 | 12.9 | 0.00 | 0.00 | 0.00 | 81 | 1013.0 |
| 20260507200720 | 16 | 230 | 6.4 | 12.9 | 0.00 | 0.00 | 0.00 | 81 | 1013.1 |
| 20260507195936 | 16 | 225 | 6.4 | 12.9 | 0.00 | 0.00 | 0.00 | 81 | 1013.0 |
| 20260507195735 | 16 | 228 | 8.0 | 12.9 | 0.00 | 0.00 | 0.00 | 81 | 1013.1 |
| 20260507195629 | 16 | 220 | 8.0 | 12.9 | 0.00 | 0.00 | 0.00 | 81 | 1013.0 |
| 20260507195544 | 16 | 207 | 6.4 | 12.9 | 0.00 | 0.00 | 0.00 | 81 | 1013.0 |
| 20260507195445 | 16 | 207 | 6.4 | 12.9 | 0.00 | 0.00 | 0.00 | 81 | 1013.1 |
| 20260507195348 | 16 | 223 | 6.4 | 12.9 | 0.00 | 0.00 | 0.00 | 81 | 1013.1 |
| 20260507194935 | 16 | 223 | 6.4 | 12.9 | 0.00 | 0.00 | 0.00 | 81 | 1013.0 |
| 20260507194751 | 16 | 205 | 6.4 | 11.3 | 0.00 | 0.00 | 0.00 | 81 | 1013.0 |
| 20260507194723 | 16 | 246 | 6.4 | 11.3 | 0.00 | 0.00 | 0.00 | 81 | 1013.0 |
| 20260507194656 | 16 | 226 | 6.4 | 11.3 | 0.00 | 0.00 | 0.00 | 81 | 1013.0 |
| 20260507194136 | 16 | 230 | 6.4 | 12.9 | 0.00 | 0.00 | 0.00 | 81 | 1012.9 |
| 20260507193955 | 16 | 208 | 6.4 | 12.9 | 0.00 | 0.00 | 0.00 | 81 | 1013.0 |
| 20260507193859 | 16 | 229 | 6.4 | 12.9 | 0.00 | 0.00 | 0.00 | 81 | 1012.9 |
| 20260507193832 | 16 | 215 | 8.0 | 12.9 | 0.00 | 0.00 | 0.00 | 81 | 1012.9 |
| 20260507193414 | 16 | 219 | 8.0 | 12.9 | 0.00 | 0.00 | 0.00 | 81 | 1012.9 |
| 20260507193317 | 16 | 208 | 8.0 | 12.9 | 0.00 | 0.00 | 0.00 | 81 | 1012.9 |
| 20260507192908 | 16 | 233 | 6.4 | 12.9 | 0.00 | 0.00 | 0.00 | 81 | 1012.9 |
| 20260507192534 | 16 | 211 | 6.4 | 12.9 | 0.00 | 0.00 | 0.00 | 81 | 1012.9 |
| 20260507192342 | 16 | 217 | 4.8 | 12.9 | 0.00 | 0.00 | 0.00 | 81 | 1012.9 |
| 20260507192242 | 17 | 234 | 4.8 | 12.9 | 0.00 | 0.00 | 0.00 | 81 | 1012.9 |
| 20260507191735 | 17 | 225 | 6.4 | 12.9 | 0.00 | 0.00 | 0.00 | 81 | 1012.9 |
| 20260507191634 | 17 | 184 | 4.8 | 12.9 | 0.00 | 0.00 | 0.00 | 81 | 1012.9 |
| 20260507191536 | 17 | 221 | 6.4 | 12.9 | 0.00 | 0.00 | 0.00 | 81 | 1012.8 |
| 20260507191334 | 17 | 232 | 6.4 | 12.9 | 0.00 | 0.00 | 0.00 | 81 | 1012.8 |
| 20260507191136 | 17 | 244 | 6.4 | 12.9 | 0.00 | 0.00 | 0.00 | 81 | 1012.9 |
| 20260507191123 | 17 | 223 | 6.4 | 12.9 | 0.00 | 0.00 | 0.00 | 81 | 1012.9 |
| 20260507190935 | 17 | 211 | 6.4 | 11.3 | 0.00 | 0.00 | 0.00 | 81 | 1012.9 |
| 20260507190734 | 17 | 225 | 6.4 | 14.5 | 0.00 | 0.00 | 0.00 | 81 | 1012.9 |
| 20260507190617 | 17 | 227 | 6.4 | 14.5 | 0.00 | 0.00 | 0.00 | 81 | 1012.9 |
| 20260507190537 | 17 | 243 | 6.4 | 14.5 | 0.00 | 0.00 | 0.00 | 81 | 1012.9 |
| 20260507190334 | 17 | 206 | 6.4 | 14.5 | 0.00 | 0.00 | 0.00 | 81 | 1012.8 |
| 20260507190156 | 17 | 209 | 6.4 | 14.5 | 0.00 | 0.00 | 0.00 | 81 | 1012.8 |
| 20260507190139 | 17 | 229 | 6.4 | 14.5 | 0.00 | 0.00 | 0.00 | 81 | 1012.8 |
| 20260507190052 | 17 | 232 | 6.4 | 14.5 | 0.00 | 0.00 | 0.00 | 81 | 1012.7 |
| 20260507185954 | 17 | 234 | 4.8 | 12.9 | 0.00 | 0.00 | 0.00 | 81 | 1012.7 |
| 20260507185915 | 17 | 222 | 4.8 | 12.9 | 0.00 | 0.00 | 0.00 | 81 | 1012.7 |
| 20260507185246 | 17 | 201 | 4.8 | 11.3 | 0.00 | 0.00 | 0.00 | 81 | 1012.7 |
| 20260507185229 | 17 | 219 | 4.8 | 11.3 | 0.00 | 0.00 | 0.00 | 81 | 1012.7 |
| 20260507184734 | 17 | 209 | 6.4 | 11.3 | 0.00 | 0.00 | 0.00 | 81 | 1012.7 |
| 20260507184608 | 17 | 235 | 6.4 | 11.3 | 0.00 | 0.00 | 0.00 | 81 | 1012.7 |
| 20260507184534 | 17 | 235 | 6.4 | 11.3 | 0.00 | 0.00 | 0.00 | 81 | 1012.7 |
| 20260507184339 | 17 | 228 | 4.8 | 11.3 | 0.00 | 0.00 | 0.00 | 81 | 1012.7 |
| 20260507184247 | 17 | 217 | 4.8 | 11.3 | 0.00 | 0.00 | 0.00 | 81 | 1012.6 |
| 20260507184228 | 17 | 227 | 4.8 | 11.3 | 0.00 | 0.00 | 0.00 | 81 | 1012.7 |
| 20260507183735 | 17 | 233 | 3.2 | 9.7 | 0.00 | 0.00 | 0.00 | 81 | 1012.7 |
| 20260507183606 | 17 | 230 | 4.8 | 9.7 | 0.00 | 0.00 | 0.00 | 81 | 1012.7 |
| 20260507183538 | 17 | 229 | 4.8 | 9.7 | 0.00 | 0.00 | 0.00 | 81 | 1012.7 |
| 20260507183337 | 17 | 225 | 4.8 | 9.7 | 0.00 | 0.00 | 0.00 | 81 | 1012.7 |
| 20260507183135 | 17 | 229 | 4.8 | 9.7 | 0.00 | 0.00 | 0.00 | 81 | 1012.7 |
| 20260507183107 | 17 | 230 | 4.8 | 9.7 | 0.00 | 0.00 | 0.00 | 81 | 1012.7 |
| 20260507182935 | 17 | 242 | 4.8 | 9.7 | 0.00 | 0.00 | 0.00 | 81 | 1012.7 |
| 20260507182734 | 17 | 227 | 4.8 | 9.7 | 0.00 | 0.00 | 0.00 | 81 | 1012.6 |
| 20260507182603 | 17 | 236 | 4.8 | 9.7 | 0.00 | 0.00 | 0.00 | 81 | 1012.6 |
| 20260507182535 | 17 | 223 | 4.8 | 9.7 | 0.00 | 0.00 | 0.00 | 81 | 1012.6 |
| 20260507182334 | 17 | 238 | 4.8 | 9.7 | 0.00 | 0.00 | 0.00 | 81 | 1012.6 |
| 20260507182135 | 17 | 217 | 4.8 | 9.7 | 0.00 | 0.00 | 0.00 | 81 | 1012.7 |
| 20260507182103 | 17 | 236 | 4.8 | 9.7 | 0.00 | 0.00 | 0.00 | 80 | 1012.7 |
| 20260507181937 | 17 | 236 | 4.8 | 9.7 | 0.00 | 0.00 | 0.00 | 80 | 1012.6 |
| 20260507181737 | 17 | 226 | 4.8 | 9.7 | 0.00 | 0.00 | 0.00 | 80 | 1012.5 |
| 20260507181612 | 18 | 219 | 3.2 | 9.7 | 0.00 | 0.00 | 0.00 | 80 | 1012.6 |
| 20260507181548 | 18 | 212 | 3.2 | 9.7 | 0.00 | 0.00 | 0.00 | 80 | 1012.6 |
| 20260507181335 | 18 | 215 | 3.2 | 8.0 | 0.00 | 0.00 | 0.00 | 80 | 1012.5 |
| 20260507181135 | 18 | 209 | 1.6 | 8.0 | 0.00 | 0.00 | 0.00 | 80 | 1012.5 |
| 20260507181104 | 18 | 212 | 1.6 | 8.0 | 0.00 | 0.00 | 0.00 | 80 | 1012.5 |
| 20260507180935 | 18 | 225 | 1.6 | 6.4 | 0.00 | 0.00 | 0.00 | 80 | 1012.6 |
| 20260507180734 | 18 | 207 | 0.0 | 6.4 | 0.00 | 0.00 | 0.00 | 80 | 1012.6 |
| 20260507180604 | 18 | 207 | 0.0 | 6.4 | 0.00 | 0.00 | 0.00 | 80 | 1012.5 |
| 20260507180535 | 18 | 206 | 0.0 | 6.4 | 0.00 | 0.00 | 0.00 | 80 | 1012.5 |
| 20260507180335 | 18 | 205 | 1.6 | 8.0 | 0.00 | 0.00 | 0.00 | 80 | 1012.6 |
| 20260507180229 | 18 | 205 | 1.6 | 8.0 | 0.00 | 0.00 | 0.00 | 79 | 1012.6 |
| 20260507175734 | 18 | 205 | 1.6 | 8.0 | 0.00 | 0.00 | 0.00 | 79 | 1012.4 |
| 20260507175603 | 18 | 205 | 1.6 | 8.0 | 0.00 | 0.00 | 0.00 | 79 | 1012.5 |
| 20260507175536 | 18 | 205 | 1.6 | 8.0 | 0.00 | 0.00 | 0.00 | 79 | 1012.5 |
| 20260507175335 | 18 | 230 | 0.0 | 4.8 | 0.00 | 0.00 | 0.00 | 79 | 1012.5 |
| 20260507175136 | 18 | 230 | 0.0 | 4.8 | 0.00 | 0.00 | 0.00 | 79 | 1012.5 |
| 20260507175102 | 18 | 230 | 0.0 | 0.0 | 0.00 | 0.00 | 0.00 | 78 | 1012.5 |
| 20260507174951 | 18 | 230 | 0.0 | 0.0 | 0.00 | 0.00 | 0.00 | 78 | 1012.5 |
| 20260507174850 | 18 | 230 | 0.0 | 0.0 | 0.00 | 0.00 | 0.00 | 78 | 1012.5 |
| 20260507174536 | 18 | 230 | 0.0 | 0.0 | 0.00 | 0.00 | 0.00 | 78 | 1012.4 |
| 20260507174335 | 18 | 230 | 0.0 | 0.0 | 0.00 | 0.00 | 0.00 | 78 | 1012.4 |
| 20260507174123 | 18 | 230 | 0.0 | 0.0 | 0.00 | 0.00 | 0.00 | 78 | 1012.4 |
| 20260507174045 | 18 | 230 | 0.0 | 0.0 | 0.00 | 0.00 | 0.00 | 78 | 1012.4 |
| 20260507173605 | 18 | 286 | 0.0 | 0.0 | 0.00 | 0.00 | 0.00 | 78 | 1012.4 |
| 20260507173544 | 18 | 286 | 0.0 | 0.0 | 0.00 | 0.00 | 0.00 | 77 | 1012.4 |
| 20260507173451 | 18 | 286 | 0.0 | 0.0 | 0.00 | 0.00 | 0.00 | 77 | 1012.4 |
| 20260507173401 | 18 | 286 | 0.0 | 0.0 | 0.00 | 0.00 | 0.00 | 77 | 1012.3 |
| 20260507172935 | 18 | 286 | 0.0 | 0.0 | 0.00 | 0.00 | 0.00 | 77 | 1012.4 |
| 20260507172734 | 18 | 286 | 0.0 | 0.0 | 0.00 | 0.00 | 0.00 | 77 | 1012.4 |
| 20260507172602 | 18 | 286 | 0.0 | 0.0 | 0.00 | 0.00 | 0.00 | 77 | 1012.4 |
| 20260507172537 | 18 | 286 | 0.0 | 0.0 | 0.00 | 0.00 | 0.00 | 77 | 1012.4 |
| 20260507172334 | 18 | 286 | 0.0 | 0.0 | 0.00 | 0.00 | 0.00 | 77 | 1012.5 |
| 20260507172137 | 19 | 286 | 0.0 | 0.0 | 0.00 | 0.00 | 0.00 | 76 | 1012.5 |
| 20260507172102 | 19 | 286 | 0.0 | 0.0 | 0.00 | 0.00 | 0.00 | 76 | 1012.5 |
| 20260507171935 | 19 | 286 | 0.0 | 0.0 | 0.00 | 0.00 | 0.00 | 76 | 1012.4 |
| 20260507171819 | 19 | 286 | 0.0 | 0.0 | 0.00 | 0.00 | 0.00 | 76 | 1012.4 |
| 20260507171741 | 19 | 286 | 0.0 | 0.0 | 0.00 | 0.00 | 0.00 | 76 | 1012.4 |
| 20260507171724 | 19 | 286 | 0.0 | 0.0 | 0.00 | 0.00 | 0.00 | 76 | 1012.4 |
| 20260507171333 | 19 | 286 | 0.0 | 0.0 | 0.00 | 0.00 | 0.00 | 76 | 1012.4 |
| 20260507170936 | 19 | 286 | 0.0 | 0.0 | 0.00 | 0.00 | 0.00 | 76 | 1012.4 |
| 20260507170736 | 19 | 286 | 0.0 | 0.0 | 0.00 | 0.00 | 0.00 | 75 | 1012.4 |
| 20260507170602 | 19 | 286 | 0.0 | 0.0 | 0.00 | 0.00 | 0.00 | 75 | 1012.4 |
| 20260507170536 | 19 | 286 | 0.0 | 0.0 | 0.00 | 0.00 | 0.00 | 75 | 1012.4 |
| 20260507170335 | 19 | 286 | 0.0 | 0.0 | 0.00 | 0.00 | 0.00 | 74 | 1012.5 |
| 20260507170123 | 19 | 286 | 0.0 | 0.0 | 0.00 | 0.00 | 0.00 | 74 | 1012.4 |
| 20260507170046 | 19 | 286 | 0.0 | 0.0 | 0.00 | 0.00 | 0.00 | 74 | 1012.5 |
| 20260507165602 | 19 | 286 | 0.0 | 0.0 | 0.00 | 0.00 | 0.00 | 74 | 1012.5 |
| 20260507165536 | 19 | 286 | 0.0 | 0.0 | 0.00 | 0.00 | 0.00 | 75 | 1012.5 |
| 20260507165425 | 19 | 286 | 0.0 | 0.0 | 0.00 | 0.00 | 0.00 | 74 | 1012.5 |
| 20260507165329 | 19 | 286 | 0.0 | 0.0 | 0.00 | 0.00 | 0.00 | 74 | 1012.5 |
| 20260507164954 | 19 | 286 | 0.0 | 0.0 | 0.00 | 0.00 | 0.00 | 74 | 1012.6 |
| 20260507164851 | 19 | 286 | 0.0 | 0.0 | 0.00 | 0.00 | 0.00 | 74 | 1012.6 |
| 20260507164541 | 19 | 286 | 0.0 | 0.0 | 0.00 | 0.00 | 0.00 | 74 | 1012.7 |
| 20260507164442 | 19 | 286 | 0.0 | 0.0 | 0.00 | 0.00 | 0.00 | 73 | 1012.7 |
| 20260507164355 | 19 | 309 | 0.0 | 0.0 | 0.00 | 0.00 | 0.00 | 73 | 1012.7 |
| 20260507164048 | 19 | 327 | 0.0 | 0.0 | 0.00 | 0.00 | 0.00 | 74 | 1012.5 |
| 20260507163603 | 19 | 327 | 0.0 | 0.0 | 0.00 | 0.00 | 0.00 | 74 | 1012.6 |
| 20260507163535 | 19 | 327 | 0.0 | 0.0 | 0.00 | 0.00 | 0.00 | 74 | 1012.6 |
| 20260507163333 | 19 | 327 | 0.0 | 0.0 | 0.00 | 0.00 | 0.00 | 73 | 1012.5 |
| 20260507163133 | 19 | 327 | 0.0 | 3.2 | 0.00 | 0.00 | 0.00 | 73 | 1012.5 |
| 20260507163100 | 19 | 327 | 0.0 | 3.2 | 0.00 | 0.00 | 0.00 | 73 | 1012.6 |
| 20260507162932 | 19 | 321 | 0.0 | 3.2 | 0.00 | 0.00 | 0.00 | 73 | 1012.6 |
| 20260507162735 | 19 | 321 | 0.0 | 3.2 | 0.00 | 0.00 | 0.00 | 73 | 1012.7 |
| 20260507162652 | 19 | 304 | 0.0 | 3.2 | 0.00 | 0.00 | 0.00 | 73 | 1012.7 |
| 20260507162634 | 19 | 311 | 0.0 | 3.2 | 0.00 | 0.00 | 0.00 | 72 | 1012.7 |
| 20260507162532 | 20 | 311 | 0.0 | 3.2 | 0.00 | 0.00 | 0.00 | 72 | 1012.7 |
| 20260507162217 | 20 | 30 | 0.0 | 0.0 | 0.00 | 0.00 | 0.00 | 72 | 1012.6 |
| 20260507161724 | 20 | 31 | 0.0 | 1.6 | 0.00 | 0.00 | 0.00 | 72 | 1012.5 |
| 20260507161603 | 20 | 30 | 0.0 | 1.6 | 0.00 | 0.00 | 0.00 | 72 | 1012.5 |
| 20260507161523 | 20 | 30 | 0.0 | 1.6 | 0.00 | 0.00 | 0.00 | 72 | 1012.5 |
| 20260507161323 | 20 | 30 | 0.0 | 1.6 | 0.00 | 0.00 | 0.00 | 72 | 1012.5 |
| 20260507161126 | 20 | 30 | 0.0 | 1.6 | 0.00 | 0.00 | 0.00 | 72 | 1012.5 |
| 20260507161101 | 20 | 30 | 0.0 | 1.6 | 0.00 | 0.00 | 0.00 | 71 | 1012.5 |
| 20260507160948 | 20 | 93 | 0.0 | 0.0 | 0.00 | 0.00 | 0.00 | 72 | 1012.5 |
| 20260507160846 | 20 | 94 | 0.0 | 0.0 | 0.00 | 0.00 | 0.00 | 71 | 1012.5 |
| 20260507160524 | 20 | 95 | 0.0 | 0.0 | 0.00 | 0.00 | 0.00 | 71 | 1012.5 |
| 20260507160324 | 20 | 94 | 0.0 | 0.0 | 0.00 | 0.00 | 0.00 | 71 | 1012.6 |
| 20260507160120 | 20 | 95 | 0.0 | 0.0 | 0.00 | 0.00 | 0.00 | 71 | 1012.6 |
| 20260507155918 | 20 | 95 | 0.0 | 0.0 | 0.00 | 0.00 | 0.00 | 71 | 1012.7 |
| 20260507155717 | 20 | 95 | 0.0 | 0.0 | 0.00 | 0.00 | 0.00 | 72 | 1012.7 |
| 20260507155602 | 20 | 95 | 0.0 | 0.0 | 0.00 | 0.00 | 0.00 | 72 | 1012.6 |
| 20260507155513 | 20 | 95 | 0.0 | 0.0 | 0.00 | 0.00 | 0.00 | 72 | 1012.6 |
| 20260507155419 | 20 | 95 | 0.0 | 0.0 | 0.00 | 0.00 | 0.00 | 72 | 1012.5 |
| 20260507155101 | 20 | 95 | 0.0 | 0.0 | 0.00 | 0.00 | 0.00 | 72 | 1012.6 |
| 20260507154914 | 20 | 95 | 0.0 | 0.0 | 0.00 | 0.00 | 0.00 | 72 | 1012.7 |
| 20260507154715 | 20 | 95 | 0.0 | 0.0 | 0.00 | 0.00 | 0.00 | 72 | 1012.8 |
| 20260507154604 | 20 | 95 | 0.0 | 0.0 | 0.00 | 0.00 | 0.00 | 72 | 1012.8 |
| 20260507154514 | 20 | 95 | 0.0 | 0.0 | 0.00 | 0.00 | 0.00 | 71 | 1012.8 |
| 20260507154314 | 20 | 95 | 0.0 | 0.0 | 0.00 | 0.00 | 0.00 | 71 | 1012.9 |
| 20260507154100 | 20 | 95 | 0.0 | 0.0 | 0.00 | 0.00 | 0.00 | 71 | 1012.8 |
| 20260507153912 | 20 | 95 | 0.0 | 0.0 | 0.00 | 0.00 | 0.00 | 71 | 1012.8 |
| 20260507153712 | 20 | 95 | 0.0 | 0.0 | 0.00 | 0.00 | 0.00 | 70 | 1012.8 |
| 20260507153602 | 20 | 95 | 0.0 | 0.0 | 0.00 | 0.00 | 0.00 | 70 | 1012.7 |
| 20260507153514 | 20 | 96 | 0.0 | 0.0 | 0.00 | 0.00 | 0.00 | 70 | 1012.7 |
| 20260507153314 | 20 | 95 | 0.0 | 0.0 | 0.00 | 0.00 | 0.00 | 70 | 1012.7 |
| 20260507153200 | 20 | 95 | 0.0 | 0.0 | 0.00 | 0.00 | 0.00 | 70 | 1012.7 |
| 20260507153150 | 20 | 96 | 0.0 | 0.0 | 0.00 | 0.00 | 0.00 | 70 | 1012.8 |
| 20260507153033 | 20 | 95 | 0.0 | 0.0 | 0.00 | 0.00 | 0.00 | 70 | 1012.8 |
| 20260507152604 | 20 | 96 | 0.0 | 0.0 | 0.00 | 0.00 | 0.00 | 70 | 1012.9 |
| 20260507152517 | 20 | 96 | 0.0 | 0.0 | 0.00 | 0.00 | 0.00 | 70 | 1013.0 |
| 20260507152427 | 20 | 96 | 0.0 | 0.0 | 0.00 | 0.00 | 0.00 | 70 | 1013.0 |
| 20260507152316 | 20 | 96 | 0.0 | 0.0 | 0.00 | 0.00 | 0.00 | 69 | 1012.8 |
| 20260507151602 | 20 | 96 | 0.0 | 0.0 | 0.00 | 0.00 | 0.00 | 68 | 1012.9 |
| 20260507151508 | 20 | 95 | 0.0 | 1.6 | 0.00 | 0.00 | 0.00 | 68 | 1012.9 |
| 20260507151415 | 20 | 96 | 0.0 | 1.6 | 0.00 | 0.00 | 0.00 | 68 | 1013.1 |
| 20260507151105 | 20 | 96 | 0.0 | 1.6 | 0.00 | 0.00 | 0.00 | 68 | 1013.1 |
| 20260507150908 | 20 | 96 | 0.0 | 4.8 | 0.00 | 0.00 | 0.00 | 68 | 1013.0 |
| 20260507150707 | 20 | 96 | 0.0 | 4.8 | 0.00 | 0.00 | 0.00 | 68 | 1013.1 |
| 20260507150601 | 20 | 95 | 0.0 | 6.4 | 0.00 | 0.00 | 0.00 | 68 | 1013.1 |
| 20260507150507 | 20 | 96 | 0.0 | 6.4 | 0.00 | 0.00 | 0.00 | 68 | 1013.0 |
| 20260507150306 | 20 | 96 | 0.0 | 6.4 | 0.00 | 0.00 | 0.00 | 68 | 1013.1 |
| 20260507150113 | 20 | 96 | 0.0 | 6.4 | 0.00 | 0.00 | 0.00 | 68 | 1013.1 |
| 20260507145909 | 20 | 96 | 0.0 | 6.4 | 0.00 | 0.00 | 0.00 | 68 | 1013.0 |
| 20260507145705 | 20 | 96 | 0.0 | 6.4 | 0.00 | 0.00 | 0.00 | 68 | 1013.0 |
| 20260507145601 | 20 | 95 | 0.0 | 0.0 | 0.00 | 0.00 | 0.00 | 68 | 1013.0 |
| 20260507145507 | 20 | 95 | 0.0 | 0.0 | 0.00 | 0.00 | 0.00 | 68 | 1013.0 |
| 20260507145307 | 20 | 95 | 0.0 | 0.0 | 0.00 | 0.00 | 0.00 | 68 | 1012.9 |
| 20260507145105 | 20 | 95 | 0.0 | 0.0 | 0.00 | 0.00 | 0.00 | 67 | 1013.0 |
| 20260507144906 | 20 | 95 | 0.0 | 0.0 | 0.00 | 0.00 | 0.00 | 67 | 1013.1 |
| 20260507144707 | 20 | 95 | 0.0 | 0.0 | 0.00 | 0.00 | 0.00 | 68 | 1013.0 |
| 20260507144602 | 20 | 95 | 0.0 | 0.0 | 0.00 | 0.00 | 0.00 | 67 | 1012.9 |
| 20260507144508 | 20 | 95 | 0.0 | 0.0 | 0.00 | 0.00 | 0.00 | 68 | 1012.9 |
| 20260507144337 | 20 | 95 | 0.0 | 0.0 | 0.00 | 0.00 | 0.00 | 68 | 1012.9 |
| 20260507144234 | 20 | 95 | 0.0 | 0.0 | 0.00 | 0.00 | 0.00 | 68 | 1013.0 |
| 20260507144146 | 20 | 95 | 0.0 | 0.0 | 0.00 | 0.00 | 0.00 | 68 | 1013.0 |
| 20260507143506 | 20 | 95 | 0.0 | 0.0 | 0.00 | 0.00 | 0.00 | 68 | 1013.2 |
| 20260507143309 | 20 | 95 | 0.0 | 0.0 | 0.00 | 0.00 | 0.00 | 68 | 1013.2 |
| 20260507143105 | 20 | 95 | 0.0 | 0.0 | 0.00 | 0.00 | 0.00 | 69 | 1013.2 |
| 20260507142909 | 20 | 95 | 0.0 | 0.0 | 0.00 | 0.00 | 0.00 | 69 | 1013.3 |
| 20260507142705 | 20 | 95 | 1.6 | 6.4 | 0.00 | 0.00 | 0.00 | 69 | 1013.3 |
| 20260507142601 | 20 | 95 | 1.6 | 8.0 | 0.00 | 0.00 | 0.00 | 69 | 1013.2 |
| 20260507142512 | 20 | 95 | 3.2 | 8.0 | 0.00 | 0.00 | 0.00 | 69 | 1013.3 |
| 20260507142423 | 20 | 138 | 3.2 | 9.7 | 0.00 | 0.00 | 0.00 | 69 | 1013.1 |
| 20260507142109 | 20 | 138 | 3.2 | 9.7 | 0.00 | 0.00 | 0.00 | 69 | 1013.1 |
| 20260507142014 | 20 | 138 | 3.2 | 9.7 | 0.00 | 0.00 | 0.00 | 68 | 1013.1 |
| 20260507141601 | 20 | 138 | 1.6 | 9.7 | 0.00 | 0.00 | 0.00 | 67 | 1013.1 |
| 20260507141507 | 20 | 130 | 0.0 | 9.7 | 0.00 | 0.00 | 0.00 | 68 | 1013.0 |
| 20260507141312 | 20 | 101 | 0.0 | 4.8 | 0.00 | 0.00 | 0.00 | 68 | 1013.0 |
| 20260507141209 | 20 | 82 | 0.0 | 0.0 | 0.00 | 0.00 | 0.00 | 67 | 1013.0 |
| 20260507140708 | 20 | 82 | 0.0 | 8.0 | 0.00 | 0.00 | 0.00 | 67 | 1013.1 |
| 20260507140601 | 20 | 82 | 0.0 | 8.0 | 0.00 | 0.00 | 0.00 | 67 | 1013.1 |
| 20260507140508 | 20 | 82 | 0.0 | 8.0 | 0.00 | 0.00 | 0.00 | 67 | 1013.1 |
| 20260507140416 | 20 | 82 | 0.0 | 8.0 | 0.00 | 0.00 | 0.00 | 66 | 1013.1 |
| 20260507140106 | 20 | 112 | 0.0 | 8.0 | 0.00 | 0.00 | 0.00 | 66 | 1013.2 |
| 20260507135907 | 21 | 131 | 0.0 | 0.0 | 0.00 | 0.00 | 0.00 | 66 | 1013.2 |
| 20260507135705 | 21 | 107 | 0.0 | 0.0 | 0.00 | 0.00 | 0.00 | 65 | 1013.2 |
| 20260507135631 | 21 | 107 | 0.0 | 0.0 | 0.00 | 0.00 | 0.00 | 66 | 1013.2 |
| 20260507135604 | 21 | 107 | 0.0 | 0.0 | 0.00 | 0.00 | 0.00 | 66 | 1013.2 |
| 20260507135106 | 21 | 107 | 0.0 | 0.0 | 0.00 | 0.00 | 0.00 | 66 | 1013.1 |
| 20260507134909 | 21 | 107 | 0.0 | 0.0 | 0.00 | 0.00 | 0.00 | 66 | 1013.2 |
| 20260507134706 | 21 | 107 | 0.0 | 0.0 | 0.00 | 0.00 | 0.00 | 65 | 1013.1 |
| 20260507134603 | 21 | 107 | 0.0 | 0.0 | 0.00 | 0.00 | 0.00 | 65 | 1013.1 |
| 20260507134510 | 21 | 107 | 0.0 | 0.0 | 0.00 | 0.00 | 0.00 | 65 | 1013.1 |
| 20260507134421 | 21 | 107 | 0.0 | 0.0 | 0.00 | 0.00 | 0.00 | 65 | 1013.2 |
| 20260507134106 | 21 | 107 | 0.0 | 0.0 | 0.00 | 0.00 | 0.00 | 66 | 1013.2 |
| 20260507133908 | 21 | 107 | 0.0 | 3.2 | 0.00 | 0.00 | 0.00 | 65 | 1013.1 |
| 20260507133708 | 20 | 81 | 0.0 | 6.4 | 0.00 | 0.00 | 0.00 | 66 | 1013.1 |
| 20260507133603 | 20 | 81 | 0.0 | 6.4 | 0.00 | 0.00 | 0.00 | 66 | 1013.1 |
| 20260507133505 | 20 | 81 | 0.0 | 6.4 | 0.00 | 0.00 | 0.00 | 66 | 1013.0 |
| 20260507133307 | 20 | 84 | 0.0 | 6.4 | 0.00 | 0.00 | 0.00 | 66 | 1013.1 |
| 20260507133106 | 20 | 84 | 0.0 | 6.4 | 0.00 | 0.00 | 0.00 | 66 | 1013.1 |
| 20260507132906 | 20 | 110 | 0.0 | 6.4 | 0.00 | 0.00 | 0.00 | 66 | 1013.1 |
| 20260507132710 | 20 | 101 | 0.0 | 4.8 | 0.00 | 0.00 | 0.00 | 66 | 1013.2 |
| 20260507132603 | 20 | 101 | 0.0 | 8.0 | 0.00 | 0.00 | 0.00 | 66 | 1013.3 |
| 20260507132507 | 20 | 101 | 0.0 | 8.0 | 0.00 | 0.00 | 0.00 | 66 | 1013.3 |
| 20260507132415 | 20 | 101 | 1.6 | 8.0 | 0.00 | 0.00 | 0.00 | 66 | 1013.2 |
| 20260507132104 | 20 | 111 | 1.6 | 8.0 | 0.00 | 0.00 | 0.00 | 66 | 1013.3 |
| 20260507131909 | 20 | 148 | 3.2 | 11.3 | 0.00 | 0.00 | 0.00 | 66 | 1013.2 |
| 20260507131814 | 20 | 138 | 1.6 | 11.3 | 0.00 | 0.00 | 0.00 | 65 | 1013.2 |
| 20260507131744 | 20 | 128 | 1.6 | 11.3 | 0.00 | 0.00 | 0.00 | 65 | 1013.1 |
| 20260507131409 | 21 | 136 | 1.6 | 11.3 | 0.00 | 0.00 | 0.00 | 65 | 1013.2 |
| 20260507131319 | 21 | 149 | 0.0 | 11.3 | 0.00 | 0.00 | 0.00 | 65 | 1013.2 |
| 20260507130901 | 21 | 131 | 0.0 | 4.8 | 0.00 | 0.00 | 0.00 | 66 | 1013.2 |
| 20260507130701 | 21 | 68 | 0.0 | 3.2 | 0.00 | 0.00 | 0.00 | 67 | 1013.2 |
| 20260507130602 | 21 | 57 | 0.0 | 3.2 | 0.00 | 0.00 | 0.00 | 68 | 1013.2 |
| 20260507130500 | 20 | 107 | 0.0 | 3.2 | 0.00 | 0.00 | 0.00 | 68 | 1013.2 |
| 20260507130302 | 20 | 92 | 0.0 | 9.7 | 0.00 | 0.00 | 0.00 | 68 | 1013.3 |
| 20260507130112 | 20 | 45 | 0.0 | 9.7 | 0.00 | 0.00 | 0.00 | 69 | 1013.2 |
| 20260507125859 | 20 | 167 | 1.6 | 9.7 | 0.00 | 0.00 | 0.00 | 69 | 1013.3 |
| 20260507125711 | 20 | 94 | 1.6 | 9.7 | 0.00 | 0.00 | 0.00 | 70 | 1013.3 |
| 20260507125644 | 20 | 74 | 1.6 | 9.7 | 0.00 | 0.00 | 0.00 | 71 | 1013.3 |
| 20260507125609 | 20 | 116 | 1.6 | 9.7 | 0.00 | 0.00 | 0.00 | 71 | 1013.3 |
| 20260507125521 | 20 | 116 | 3.2 | 11.3 | 0.00 | 0.00 | 0.00 | 71 | 1013.2 |
| 20260507125214 | 20 | 120 | 3.2 | 11.3 | 0.00 | 0.00 | 0.00 | 71 | 1013.2 |
| 20260507124649 | 20 | 140 | 3.2 | 11.3 | 0.00 | 0.00 | 0.00 | 71 | 1013.4 |
| 20260507124600 | 20 | 124 | 1.6 | 11.3 | 0.00 | 0.00 | 0.00 | 71 | 1013.4 |
| 20260507124445 | 20 | 117 | 1.6 | 11.3 | 0.00 | 0.00 | 0.00 | 71 | 1013.4 |
| 20260507124246 | 20 | 126 | 0.0 | 11.3 | 0.00 | 0.00 | 0.00 | 72 | 1013.4 |
| 20260507124103 | 20 | 118 | 1.6 | 9.7 | 0.00 | 0.00 | 0.00 | 72 | 1013.4 |
| 20260507124047 | 20 | 124 | 1.6 | 9.7 | 0.00 | 0.00 | 0.00 | 72 | 1013.4 |
| 20260507123847 | 19 | 76 | 1.6 | 12.9 | 0.00 | 0.00 | 0.00 | 72 | 1013.4 |
| 20260507123647 | 19 | 67 | 1.6 | 12.9 | 0.00 | 0.00 | 0.00 | 72 | 1013.4 |
| 20260507123602 | 19 | 60 | 1.6 | 12.9 | 0.00 | 0.00 | 0.00 | 72 | 1013.4 |
| 20260507123449 | 19 | 60 | 1.6 | 12.9 | 0.00 | 0.00 | 0.00 | 72 | 1013.5 |
| 20260507123357 | 19 | 115 | 1.6 | 12.9 | 0.00 | 0.00 | 0.00 | 71 | 1013.5 |
| 20260507123043 | 20 | 126 | 0.0 | 12.9 | 0.00 | 0.00 | 0.00 | 71 | 1013.6 |
| 20260507122909 | 19 | 69 | 0.0 | 6.4 | 0.00 | 0.00 | 0.00 | 71 | 1013.7 |
| 20260507122646 | 20 | 102 | 0.0 | 6.4 | 0.00 | 0.00 | 0.00 | 71 | 1013.7 |
| 20260507122601 | 20 | 136 | 0.0 | 6.4 | 0.00 | 0.00 | 0.00 | 71 | 1013.7 |
| 20260507122437 | 20 | 44 | 0.0 | 6.4 | 0.00 | 0.00 | 0.00 | 70 | 1013.7 |
| 20260507122238 | 19 | 123 | 0.0 | 6.4 | 0.00 | 0.00 | 0.00 | 71 | 1013.8 |
| 20260507122105 | 20 | 126 | 0.0 | 6.4 | 0.00 | 0.00 | 0.00 | 72 | 1013.7 |
| 20260507122038 | 20 | 124 | 0.0 | 6.4 | 0.00 | 0.00 | 0.00 | 73 | 1013.7 |
| 20260507121838 | 19 | 105 | 0.0 | 0.0 | 0.00 | 0.00 | 0.00 | 73 | 1013.8 |
| 20260507121640 | 19 | 105 | 0.0 | 0.0 | 0.00 | 0.00 | 0.00 | 74 | 1013.9 |
| 20260507121602 | 19 | 105 | 0.0 | 0.0 | 0.00 | 0.00 | 0.00 | 74 | 1013.9 |
| 20260507121434 | 19 | 105 | 0.0 | 0.0 | 0.00 | 0.00 | 0.00 | 74 | 1013.9 |
| 20260507121236 | 19 | 109 | 0.0 | 0.0 | 0.00 | 0.00 | 0.00 | 75 | 1013.9 |
| 20260507121102 | 19 | 109 | 0.0 | 0.0 | 0.00 | 0.00 | 0.00 | 75 | 1014.0 |
| 20260507121036 | 19 | 109 | 0.0 | 0.0 | 0.00 | 0.00 | 0.00 | 75 | 1014.0 |
| 20260507120853 | 19 | 109 | 0.0 | 0.0 | 0.00 | 0.00 | 0.00 | 75 | 1014.1 |
| 20260507120803 | 19 | 46 | 0.0 | 0.0 | 0.00 | 0.00 | 0.00 | 76 | 1014.0 |
| 20260507120739 | 18 | 46 | 0.0 | 0.0 | 0.00 | 0.00 | 0.00 | 75 | 1014.1 |
| 20260507120400 | 18 | 46 | 0.0 | 0.0 | 0.00 | 0.00 | 0.00 | 76 | 1014.1 |
| 20260507120315 | 18 | 45 | 0.0 | 0.0 | 0.00 | 0.00 | 0.00 | 76 | 1014.1 |
| 20260507115853 | 18 | 46 | 0.0 | 0.0 | 0.00 | 0.00 | 0.00 | 76 | 1014.1 |
| 20260507115637 | 18 | 46 | 1.6 | 11.3 | 0.00 | 0.00 | 0.00 | 76 | 1014.1 |
| 20260507115601 | 18 | 46 | 1.6 | 12.9 | 0.00 | 0.00 | 0.00 | 76 | 1014.0 |
| 20260507115434 | 18 | 46 | 1.6 | 12.9 | 0.00 | 0.00 | 0.00 | 76 | 1014.0 |
| 20260507115234 | 18 | 46 | 1.6 | 12.9 | 0.00 | 0.00 | 0.00 | 76 | 1013.9 |
| 20260507115121 | 18 | 46 | 1.6 | 12.9 | 0.00 | 0.00 | 0.00 | 76 | 1013.8 |
| 20260507115102 | 18 | 46 | 1.6 | 12.9 | 0.00 | 0.00 | 0.00 | 76 | 1013.8 |
| 20260507115001 | 18 | 45 | 3.2 | 12.9 | 0.00 | 0.00 | 0.00 | 76 | 1013.8 |
| 20260507114906 | 18 | 155 | 3.2 | 14.5 | 0.00 | 0.00 | 0.00 | 76 | 1013.7 |
| 20260507114555 | 18 | 90 | 3.2 | 14.5 | 0.00 | 0.00 | 0.00 | 76 | 1013.5 |
| 20260507114504 | 18 | 116 | 3.2 | 14.5 | 0.00 | 0.00 | 0.00 | 76 | 1013.3 |
| 20260507114423 | 18 | 106 | 4.8 | 14.5 | 0.00 | 0.00 | 0.00 | 76 | 1013.4 |
| 20260507114056 | 18 | 134 | 4.8 | 14.5 | 0.00 | 0.00 | 0.00 | 76 | 1013.6 |
| 20260507114008 | 18 | 97 | 3.2 | 11.3 | 0.00 | 0.00 | 0.00 | 76 | 1014.0 |
| 20260507113657 | 18 | 146 | 3.2 | 11.3 | 0.00 | 0.00 | 0.00 | 75 | 1014.0 |
| 20260507113611 | 18 | 113 | 3.2 | 9.7 | 0.00 | 0.00 | 0.00 | 76 | 1014.1 |
| 20260507113534 | 18 | 119 | 1.6 | 9.7 | 0.00 | 0.00 | 0.00 | 75 | 1014.1 |
| 20260507113517 | 18 | 129 | 1.6 | 9.7 | 0.00 | 0.00 | 0.00 | 75 | 1014.1 |
| 20260507113417 | 18 | 123 | 1.6 | 9.7 | 0.00 | 0.00 | 0.00 | 74 | 1014.3 |
| 20260507112749 | 18 | 117 | 1.6 | 9.7 | 0.00 | 0.00 | 0.00 | 75 | 1014.4 |
| 20260507112139 | 19 | 109 | 0.0 | 1.6 | 0.00 | 0.00 | 0.00 | 76 | 1014.5 |
| 20260507112036 | 19 | 111 | 0.0 | 1.6 | 0.00 | 0.00 | 0.00 | 76 | 1014.5 |
| 20260507111948 | 19 | 132 | 0.0 | 0.0 | 0.00 | 0.00 | 0.00 | 77 | 1014.5 |
| 20260507111229 | 19 | 351 | 0.0 | 0.0 | 0.00 | 0.00 | 0.00 | 79 | 1014.5 |
| 20260507111102 | 19 | 351 | 0.0 | 0.0 | 0.00 | 0.00 | 0.00 | 79 | 1014.5 |
| 20260507111027 | 19 | 351 | 0.0 | 0.0 | 0.00 | 0.00 | 0.00 | 79 | 1014.5 |
| 20260507110917 | 18 | 351 | 0.0 | 0.0 | 0.00 | 0.00 | 0.00 | 79 | 1014.5 |
| 20260507110829 | 18 | 351 | 0.0 | 0.0 | 0.00 | 0.00 | 0.00 | 79 | 1014.4 |
| 20260507110427 | 18 | 351 | 0.0 | 0.0 | 0.00 | 0.00 | 0.00 | 79 | 1014.5 |
| 20260507110227 | 18 | 351 | 0.0 | 4.8 | 0.00 | 0.00 | 0.00 | 78 | 1014.6 |
| 20260507110110 | 18 | 351 | 0.0 | 6.4 | 0.00 | 0.00 | 0.00 | 78 | 1014.6 |
| 20260507110025 | 18 | 351 | 0.0 | 6.4 | 0.00 | 0.00 | 0.00 | 78 | 1014.6 |
| 20260507105836 | 18 | 351 | 0.0 | 6.4 | 0.00 | 0.00 | 0.00 | 78 | 1014.6 |
| 20260507105609 | 18 | 351 | 0.0 | 6.4 | 0.00 | 0.00 | 0.00 | 77 | 1014.6 |
| 20260507105419 | 18 | 351 | 0.0 | 6.4 | 0.00 | 0.00 | 0.00 | 76 | 1014.6 |
| 20260507105221 | 19 | 351 | 0.0 | 4.8 | 0.00 | 0.00 | 0.00 | 76 | 1014.6 |
| 20260507105141 | 19 | 351 | 0.0 | 0.0 | 0.00 | 0.00 | 0.00 | 76 | 1014.6 |
| 20260507105118 | 19 | 338 | 0.0 | 0.0 | 0.00 | 0.00 | 0.00 | 76 | 1014.6 |
| 20260507104602 | 19 | 1 | 0.0 | 0.0 | 0.00 | 0.00 | 0.00 | 76 | 1014.6 |
| 20260507104419 | 19 | 1 | 0.0 | 6.4 | 0.00 | 0.00 | 0.00 | 75 | 1014.6 |
| 20260507104324 | 19 | 1 | 0.0 | 6.4 | 0.00 | 0.00 | 0.00 | 74 | 1014.6 |
| 20260507104253 | 19 | 1 | 0.0 | 6.4 | 0.00 | 0.00 | 0.00 | 74 | 1014.7 |
| 20260507103813 | 19 | 5 | 0.0 | 6.4 | 0.00 | 0.00 | 0.00 | 72 | 1014.6 |
| 20260507103604 | 19 | 13 | 0.0 | 6.4 | 0.00 | 0.00 | 0.00 | 72 | 1014.4 |
| 20260507103411 | 19 | 18 | 0.0 | 6.4 | 0.00 | 0.00 | 0.00 | 72 | 1014.5 |
| 20260507103211 | 19 | 18 | 0.0 | 6.4 | 0.00 | 0.00 | 0.00 | 72 | 1014.4 |
| 20260507103102 | 19 | 18 | 0.0 | 6.4 | 0.00 | 0.00 | 0.00 | 72 | 1014.4 |
| 20260507103011 | 19 | 18 | 0.0 | 6.4 | 0.00 | 0.00 | 0.00 | 72 | 1014.4 |
| 20260507102813 | 19 | 18 | 0.0 | 6.4 | 0.00 | 0.00 | 0.00 | 72 | 1014.3 |
| 20260507102600 | 19 | 18 | 1.6 | 6.4 | 0.00 | 0.00 | 0.00 | 72 | 1014.4 |
| 20260507102410 | 19 | 18 | 0.0 | 6.4 | 0.00 | 0.00 | 0.00 | 72 | 1014.4 |
| 20260507102211 | 19 | 18 | 0.0 | 6.4 | 0.00 | 0.00 | 0.00 | 71 | 1014.5 |
| 20260507102102 | 19 | 18 | 0.0 | 6.4 | 0.00 | 0.00 | 0.00 | 70 | 1014.5 |
| 20260507102010 | 19 | 18 | 0.0 | 6.4 | 0.00 | 0.00 | 0.00 | 70 | 1014.6 |
| 20260507101812 | 19 | 22 | 0.0 | 6.4 | 0.00 | 0.00 | 0.00 | 70 | 1014.5 |
| 20260507101614 | 19 | 20 | 0.0 | 0.0 | 0.00 | 0.00 | 0.00 | 70 | 1014.6 |
| 20260507101602 | 20 | 20 | 0.0 | 0.0 | 0.00 | 0.00 | 0.00 | 70 | 1014.6 |
| 20260507101409 | 20 | 169 | 0.0 | 0.0 | 0.00 | 0.00 | 0.00 | 70 | 1014.5 |
| 20260507101319 | 20 | 169 | 0.0 | 0.0 | 0.00 | 0.00 | 0.00 | 70 | 1014.5 |
| 20260507101251 | 20 | 169 | 0.0 | 0.0 | 0.00 | 0.00 | 0.00 | 70 | 1014.5 |
| 20260507100914 | 20 | 169 | 0.0 | 0.0 | 0.00 | 0.00 | 0.00 | 69 | 1014.5 |
| 20260507100606 | 20 | 169 | 0.0 | 0.0 | 0.00 | 0.00 | 0.00 | 70 | 1014.4 |
| 20260507100417 | 20 | 169 | 0.0 | 0.0 | 0.00 | 0.00 | 0.00 | 69 | 1014.4 |
| 20260507100327 | 20 | 169 | 0.0 | 0.0 | 0.00 | 0.00 | 0.00 | 69 | 1014.4 |
| 20260507100300 | 20 | 169 | 0.0 | 0.0 | 0.00 | 0.00 | 0.00 | 69 | 1014.3 |
| 20260507095917 | 20 | 169 | 0.0 | 0.0 | 0.00 | 0.00 | 0.00 | 69 | 1014.2 |
| 20260507095822 | 20 | 169 | 0.0 | 0.0 | 0.00 | 0.00 | 0.00 | 69 | 1014.2 |
| 20260507095700 | 20 | 169 | 0.0 | 0.0 | 0.00 | 0.00 | 0.00 | 69 | 1014.2 |
| 20260507095335 | 20 | 169 | 0.0 | 0.0 | 0.00 | 0.00 | 0.00 | 69 | 1014.2 |
| 20260507095305 | 20 | 169 | 0.0 | 0.0 | 0.00 | 0.00 | 0.00 | 69 | 1014.2 |
| 20260507095214 | 20 | 169 | 0.0 | 0.0 | 0.00 | 0.00 | 0.00 | 68 | 1014.2 |
| 20260507095127 | 20 | 169 | 0.0 | 0.0 | 0.00 | 0.00 | 0.00 | 68 | 1014.2 |
| 20260507094522 | 20 | 169 | 0.0 | 0.0 | 0.00 | 0.00 | 0.00 | 67 | 1014.2 |
| 20260507093912 | 20 | 169 | 0.0 | 0.0 | 0.00 | 0.00 | 0.00 | 66 | 1014.2 |
| 20260507093606 | 20 | 169 | 0.0 | 0.0 | 0.00 | 0.00 | 0.00 | 65 | 1014.3 |
| 20260507093406 | 20 | 169 | 0.0 | 0.0 | 0.00 | 0.00 | 0.00 | 66 | 1014.2 |
| 20260507093206 | 20 | 169 | 0.0 | 0.0 | 0.00 | 0.00 | 0.00 | 66 | 1014.2 |
| 20260507093103 | 20 | 169 | 0.0 | 0.0 | 0.00 | 0.00 | 0.00 | 65 | 1014.3 |
| 20260507093014 | 20 | 169 | 0.0 | 0.0 | 0.00 | 0.00 | 0.00 | 65 | 1014.2 |
| 20260507092807 | 20 | 169 | 0.0 | 0.0 | 0.00 | 0.00 | 0.00 | 65 | 1014.2 |
| 20260507092606 | 20 | 169 | 0.0 | 0.0 | 0.00 | 0.00 | 0.00 | 65 | 1014.3 |
| 20260507092407 | 20 | 169 | 0.0 | 0.0 | 0.00 | 0.00 | 0.00 | 64 | 1014.3 |
| 20260507092206 | 20 | 169 | 0.0 | 0.0 | 0.00 | 0.00 | 0.00 | 63 | 1014.3 |
| 20260507092101 | 20 | 169 | 0.0 | 0.0 | 0.00 | 0.00 | 0.00 | 64 | 1014.3 |
| 20260507092009 | 20 | 169 | 0.0 | 0.0 | 0.00 | 0.00 | 0.00 | 65 | 1014.3 |
| 20260507091805 | 20 | 169 | 0.0 | 0.0 | 0.00 | 0.00 | 0.00 | 65 | 1014.2 |
| 20260507091606 | 20 | 169 | 0.0 | 0.0 | 0.00 | 0.00 | 0.00 | 65 | 1014.3 |
| 20260507091507 | 20 | 169 | 0.0 | 0.0 | 0.00 | 0.00 | 0.00 | 65 | 1014.2 |
| 20260507091101 | 20 | 169 | 0.0 | 0.0 | 0.00 | 0.00 | 0.00 | 64 | 1014.3 |
| 20260507091012 | 20 | 188 | 0.0 | 0.0 | 0.00 | 0.00 | 0.00 | 64 | 1014.3 |
| 20260507090914 | 20 | 188 | 0.0 | 0.0 | 0.00 | 0.00 | 0.00 | 63 | 1014.3 |
| 20260507090605 | 20 | 296 | 0.0 | 0.0 | 0.00 | 0.00 | 0.00 | 62 | 1014.3 |
| 20260507090406 | 20 | 296 | 0.0 | 0.0 | 0.00 | 0.00 | 0.00 | 59 | 1014.2 |
| 20260507090206 | 20 | 296 | 0.0 | 0.0 | 0.00 | 0.00 | 0.00 | 59 | 1014.3 |
| 20260507090101 | 20 | 296 | 0.0 | 0.0 | 0.00 | 0.00 | 0.00 | 58 | 1014.2 |
| 20260507090009 | 20 | 296 | 0.0 | 0.0 | 0.00 | 0.00 | 0.00 | 59 | 1014.2 |
| 20260507085911 | 20 | 296 | 0.0 | 0.0 | 0.00 | 0.00 | 0.00 | 58 | 1014.2 |
| 20260507085818 | 20 | 296 | 0.0 | 0.0 | 0.00 | 0.00 | 0.00 | 59 | 1014.1 |
| 20260507085437 | 20 | 296 | 0.0 | 0.0 | 0.00 | 0.00 | 0.00 | 59 | 1014.0 |
| 20260507085316 | 20 | 296 | 0.0 | 0.0 | 0.00 | 0.00 | 0.00 | 58 | 1014.0 |
| 20260507085246 | 20 | 296 | 0.0 | 0.0 | 0.00 | 0.00 | 0.00 | 57 | 1014.0 |
| 20260507084806 | 20 | 296 | 0.0 | 0.0 | 0.00 | 0.00 | 0.00 | 56 | 1014.0 |
| 20260507084655 | 20 | 296 | 0.0 | 0.0 | 0.00 | 0.00 | 0.00 | 55 | 1014.0 |
| 20260507084604 | 20 | 296 | 0.0 | 0.0 | 0.00 | 0.00 | 0.00 | 55 | 1014.0 |
| 20260507084240 | 20 | 296 | 0.0 | 0.0 | 0.00 | 0.00 | 0.00 | 57 | 1013.9 |
| 20260507084213 | 20 | 296 | 0.0 | 0.0 | 0.00 | 0.00 | 0.00 | 57 | 1013.8 |
| 20260507084123 | 20 | 76 | 0.0 | 0.0 | 0.00 | 0.00 | 0.00 | 57 | 1013.7 |
| 20260507083407 | 20 | 92 | 0.0 | 0.0 | 0.00 | 0.00 | 0.00 | 56 | 1013.5 |
| 20260507083207 | 20 | 92 | 0.0 | 0.0 | 0.00 | 0.00 | 0.00 | 57 | 1013.5 |
| 20260507083111 | 20 | 93 | 0.0 | 0.0 | 0.00 | 0.00 | 0.00 | 57 | 1013.5 |
| 20260507083039 | 20 | 92 | 0.0 | 0.0 | 0.00 | 0.00 | 0.00 | 57 | 1013.5 |
| 20260507082945 | 20 | 92 | 0.0 | 0.0 | 0.00 | 0.00 | 0.00 | 57 | 1013.5 |
| 20260507082637 | 20 | 93 | 0.0 | 0.0 | 0.00 | 0.00 | 0.00 | 58 | 1013.4 |
| 20260507082545 | 20 | 93 | 0.0 | 0.0 | 0.00 | 0.00 | 0.00 | 58 | 1013.4 |
| 20260507082450 | 20 | 93 | 0.0 | 0.0 | 0.00 | 0.00 | 0.00 | 57 | 1013.3 |
| 20260507082419 | 20 | 93 | 0.0 | 0.0 | 0.00 | 0.00 | 0.00 | 58 | 1013.3 |
| 20260507081611 | 20 | 93 | 0.0 | 0.0 | 0.00 | 0.00 | 0.00 | 59 | 1013.2 |
| 20260507081459 | 20 | 93 | 0.0 | 0.0 | 0.00 | 0.00 | 0.00 | 60 | 1013.1 |
| 20260507081412 | 20 | 93 | 0.0 | 0.0 | 0.00 | 0.00 | 0.00 | 60 | 1013.1 |
| 20260507081342 | 20 | 93 | 0.0 | 0.0 | 0.00 | 0.00 | 0.00 | 61 | 1013.1 |
| 20260507081319 | 20 | 93 | 0.0 | 0.0 | 0.00 | 0.00 | 0.00 | 61 | 1013.1 |
| 20260507081221 | 20 | 93 | 0.0 | 0.0 | 0.00 | 0.00 | 0.00 | 61 | 1013.1 |
| 20260507080205 | 20 | 93 | 0.0 | 0.0 | 0.00 | 0.00 | 0.00 | 62 | 1013.0 |
| 20260507080008 | 20 | 93 | 0.0 | 0.0 | 0.00 | 0.00 | 0.00 | 62 | 1013.1 |
| 20260507075818 | 20 | 93 | 0.0 | 0.0 | 0.00 | 0.00 | 0.00 | 61 | 1013.0 |
| 20260507075717 | 20 | 93 | 0.0 | 0.0 | 0.00 | 0.00 | 0.00 | 61 | 1012.9 |
| 20260507075624 | 20 | 93 | 0.0 | 0.0 | 0.00 | 0.00 | 0.00 | 62 | 1013.0 |
| 20260507075251 | 20 | 92 | 0.0 | 0.0 | 0.00 | 0.00 | 0.00 | 63 | 1012.8 |
| 20260507075154 | 20 | 93 | 0.0 | 0.0 | 0.00 | 0.00 | 0.00 | 63 | 1012.9 |
| 20260507075058 | 20 | 93 | 0.0 | 0.0 | 0.00 | 0.00 | 0.00 | 65 | 1012.8 |
| 20260507075009 | 20 | 93 | 0.0 | 0.0 | 0.00 | 0.00 | 0.00 | 66 | 1012.8 |
| 20260507074708 | 20 | 93 | 0.0 | 0.0 | 0.00 | 0.00 | 0.00 | 66 | 1012.8 |
| 20260507074340 | 19 | 92 | 0.0 | 0.0 | 0.00 | 0.00 | 0.00 | 66 | 1012.7 |
| 20260507074314 | 19 | 92 | 0.0 | 0.0 | 0.00 | 0.00 | 0.00 | 66 | 1012.7 |
| 20260507073915 | 19 | 93 | 0.0 | 0.0 | 0.00 | 0.00 | 0.00 | 66 | 1012.7 |
| 20260507073524 | 19 | 93 | 0.0 | 0.0 | 0.00 | 0.00 | 0.00 | 68 | 1012.8 |
| 20260507072912 | 19 | 93 | 0.0 | 0.0 | 0.00 | 0.00 | 0.00 | 68 | 1012.7 |
| 20260507072818 | 19 | 93 | 0.0 | 0.0 | 0.00 | 0.00 | 0.00 | 68 | 1012.7 |
| 20260507072406 | 19 | 93 | 0.0 | 0.0 | 0.00 | 0.00 | 0.00 | 68 | 1012.6 |
| 20260507072207 | 19 | 93 | 0.0 | 0.0 | 0.00 | 0.00 | 0.00 | 68 | 1012.6 |
| 20260507072104 | 18 | 93 | 0.0 | 0.0 | 0.00 | 0.00 | 0.00 | 69 | 1012.6 |
| 20260507072006 | 18 | 93 | 0.0 | 0.0 | 0.00 | 0.00 | 0.00 | 69 | 1012.6 |
| 20260507071807 | 18 | 92 | 0.0 | 0.0 | 0.00 | 0.00 | 0.00 | 69 | 1012.7 |
| 20260507071606 | 18 | 92 | 0.0 | 0.0 | 0.00 | 0.00 | 0.00 | 69 | 1012.7 |
| 20260507071407 | 18 | 92 | 0.0 | 0.0 | 0.00 | 0.00 | 0.00 | 69 | 1012.7 |
| 20260507071207 | 18 | 92 | 0.0 | 0.0 | 0.00 | 0.00 | 0.00 | 69 | 1012.7 |
| 20260507071101 | 18 | 92 | 0.0 | 0.0 | 0.00 | 0.00 | 0.00 | 69 | 1012.7 |
| 20260507071007 | 18 | 92 | 0.0 | 0.0 | 0.00 | 0.00 | 0.00 | 70 | 1012.7 |
| 20260507070815 | 18 | 92 | 0.0 | 0.0 | 0.00 | 0.00 | 0.00 | 70 | 1012.7 |
| 20260507070721 | 18 | 92 | 0.0 | 0.0 | 0.00 | 0.00 | 0.00 | 70 | 1012.6 |
| 20260507070619 | 18 | 140 | 0.0 | 0.0 | 0.00 | 0.00 | 0.00 | 70 | 1012.6 |
| 20260507070527 | 18 | 140 | 0.0 | 0.0 | 0.00 | 0.00 | 0.00 | 70 | 1012.7 |
| 20260507065909 | 18 | 255 | 0.0 | 0.0 | 0.00 | 0.00 | 0.00 | 70 | 1012.7 |
| 20260507065816 | 18 | 255 | 0.0 | 0.0 | 0.00 | 0.00 | 0.00 | 70 | 1012.6 |
| 20260507065507 | 18 | 255 | 0.0 | 0.0 | 0.00 | 0.00 | 0.00 | 70 | 1012.7 |
| 20260507065125 | 18 | 255 | 0.0 | 0.0 | 0.00 | 0.00 | 0.00 | 70 | 1012.7 |
| 20260507065007 | 18 | 255 | 0.0 | 0.0 | 0.00 | 0.00 | 0.00 | 70 | 1012.7 |
| 20260507064805 | 18 | 255 | 0.0 | 0.0 | 0.00 | 0.00 | 0.00 | 69 | 1012.7 |
| 20260507064606 | 18 | 257 | 0.0 | 0.0 | 0.00 | 0.00 | 0.00 | 70 | 1012.8 |
| 20260507064408 | 18 | 257 | 0.0 | 0.0 | 0.00 | 0.00 | 0.00 | 70 | 1012.7 |
| 20260507064206 | 18 | 257 | 0.0 | 0.0 | 0.00 | 0.00 | 0.00 | 70 | 1012.8 |
| 20260507064102 | 18 | 257 | 0.0 | 0.0 | 0.00 | 0.00 | 0.00 | 69 | 1012.7 |
| 20260507064007 | 18 | 257 | 0.0 | 0.0 | 0.00 | 0.00 | 0.00 | 69 | 1012.7 |
| 20260507063808 | 17 | 257 | 0.0 | 0.0 | 0.00 | 0.00 | 0.00 | 69 | 1012.7 |
| 20260507063605 | 17 | 257 | 0.0 | 0.0 | 0.00 | 0.00 | 0.00 | 70 | 1012.7 |
| 20260507063405 | 17 | 257 | 0.0 | 0.0 | 0.00 | 0.00 | 0.00 | 70 | 1012.7 |
| 20260507063207 | 17 | 257 | 0.0 | 0.0 | 0.00 | 0.00 | 0.00 | 69 | 1012.7 |
| 20260507063104 | 17 | 257 | 0.0 | 0.0 | 0.00 | 0.00 | 0.00 | 69 | 1012.8 |
| 20260507063007 | 17 | 257 | 0.0 | 0.0 | 0.00 | 0.00 | 0.00 | 69 | 1012.8 |
| 20260507062833 | 17 | 257 | 0.0 | 0.0 | 0.00 | 0.00 | 0.00 | 69 | 1012.8 |
| 20260507062732 | 18 | 257 | 0.0 | 0.0 | 0.00 | 0.00 | 0.00 | 68 | 1012.8 |
| 20260507062338 | 18 | 257 | 0.0 | 0.0 | 0.00 | 0.00 | 0.00 | 68 | 1012.7 |
| 20260507062306 | 18 | 257 | 0.0 | 0.0 | 0.00 | 0.00 | 0.00 | 69 | 1012.8 |
| 20260507062241 | 18 | 257 | 0.0 | 0.0 | 0.00 | 0.00 | 0.00 | 69 | 1012.7 |
| 20260507062153 | 18 | 257 | 0.0 | 0.0 | 0.00 | 0.00 | 0.00 | 68 | 1012.8 |
| 20260507061406 | 18 | 257 | 0.0 | 0.0 | 0.00 | 0.00 | 0.00 | 69 | 1012.7 |
| 20260507061205 | 18 | 257 | 0.0 | 0.0 | 0.00 | 0.00 | 0.00 | 69 | 1012.8 |
| 20260507061102 | 18 | 257 | 0.0 | 0.0 | 0.00 | 0.00 | 0.00 | 69 | 1012.8 |
| 20260507061009 | 18 | 257 | 0.0 | 0.0 | 0.00 | 0.00 | 0.00 | 68 | 1012.8 |
| 20260507060812 | 18 | 257 | 0.0 | 0.0 | 0.00 | 0.00 | 0.00 | 68 | 1012.8 |
| 20260507060708 | 18 | 257 | 0.0 | 0.0 | 0.00 | 0.00 | 0.00 | 68 | 1012.7 |
| 20260507060622 | 18 | 257 | 0.0 | 0.0 | 0.00 | 0.00 | 0.00 | 68 | 1012.7 |
| 20260507060528 | 18 | 257 | 0.0 | 0.0 | 0.00 | 0.00 | 0.00 | 69 | 1012.7 |
| 20260507060226 | 18 | 257 | 0.0 | 0.0 | 0.00 | 0.00 | 0.00 | 68 | 1012.7 |
| 20260507060138 | 18 | 257 | 0.0 | 0.0 | 0.00 | 0.00 | 0.00 | 68 | 1012.6 |
| 20260507055405 | 18 | 257 | 0.0 | 0.0 | 0.00 | 0.00 | 0.00 | 68 | 1012.6 |
| 20260507055206 | 18 | 257 | 0.0 | 0.0 | 0.00 | 0.00 | 0.00 | 68 | 1012.7 |
| 20260507055103 | 18 | 257 | 0.0 | 0.0 | 0.00 | 0.00 | 0.00 | 68 | 1012.7 |
| 20260507055008 | 18 | 257 | 0.0 | 0.0 | 0.00 | 0.00 | 0.00 | 68 | 1012.7 |
| 20260507054805 | 18 | 257 | 0.0 | 0.0 | 0.00 | 0.00 | 0.00 | 68 | 1012.7 |
| 20260507054605 | 18 | 257 | 0.0 | 0.0 | 0.00 | 0.00 | 0.00 | 67 | 1012.6 |
| 20260507054408 | 18 | 257 | 0.0 | 0.0 | 0.00 | 0.00 | 0.00 | 67 | 1012.6 |
| 20260507054206 | 17 | 257 | 0.0 | 0.0 | 0.00 | 0.00 | 0.00 | 67 | 1012.6 |
| 20260507054131 | 17 | 257 | 0.0 | 0.0 | 0.00 | 0.00 | 0.00 | 67 | 1012.6 |
| 20260507054107 | 17 | 257 | 0.0 | 0.0 | 0.00 | 0.00 | 0.00 | 66 | 1012.6 |
| 20260507054011 | 17 | 257 | 0.0 | 0.0 | 0.00 | 0.00 | 0.00 | 67 | 1012.6 |
| 20260507053705 | 17 | 257 | 0.0 | 0.0 | 0.00 | 0.00 | 0.00 | 67 | 1012.6 |
| 20260507053311 | 17 | 257 | 0.0 | 0.0 | 0.00 | 0.00 | 0.00 | 66 | 1012.6 |
| 20260507053244 | 17 | 257 | 0.0 | 0.0 | 0.00 | 0.00 | 0.00 | 66 | 1012.5 |
| 20260507052808 | 17 | 257 | 0.0 | 0.0 | 0.00 | 0.00 | 0.00 | 66 | 1012.5 |
| 20260507052629 | 17 | 257 | 0.0 | 0.0 | 0.00 | 0.00 | 0.00 | 66 | 1012.4 |
| 20260507052537 | 17 | 257 | 0.0 | 0.0 | 0.00 | 0.00 | 0.00 | 66 | 1012.4 |
| 20260507052443 | 17 | 257 | 0.0 | 0.0 | 0.00 | 0.00 | 0.00 | 66 | 1012.4 |
| 20260507052415 | 17 | 257 | 0.0 | 0.0 | 0.00 | 0.00 | 0.00 | 66 | 1012.4 |
| 20260507052350 | 17 | 257 | 0.0 | 0.0 | 0.00 | 0.00 | 0.00 | 66 | 1012.4 |
| 20260507052248 | 17 | 257 | 0.0 | 0.0 | 0.00 | 0.00 | 0.00 | 67 | 1012.4 |
| 20260507052200 | 17 | 257 | 0.0 | 0.0 | 0.00 | 0.00 | 0.00 | 67 | 1012.4 |
| 20260507051828 | 17 | 257 | 0.0 | 0.0 | 0.00 | 0.00 | 0.00 | 68 | 1012.3 |
| 20260507051456 | 16 | 257 | 0.0 | 0.0 | 0.00 | 0.00 | 0.00 | 68 | 1012.2 |
| 20260507051429 | 16 | 257 | 0.0 | 0.0 | 0.00 | 0.00 | 0.00 | 68 | 1012.3 |
| 20260507050405 | 16 | 257 | 0.0 | 0.0 | 0.00 | 0.00 | 0.00 | 69 | 1012.1 |
| 20260507050207 | 16 | 257 | 0.0 | 0.0 | 0.00 | 0.00 | 0.00 | 70 | 1012.2 |
| 20260507050104 | 16 | 257 | 0.0 | 0.0 | 0.00 | 0.00 | 0.00 | 70 | 1012.1 |
| 20260507050009 | 16 | 257 | 0.0 | 0.0 | 0.00 | 0.00 | 0.00 | 70 | 1012.1 |
| 20260507045808 | 16 | 257 | 0.0 | 0.0 | 0.00 | 0.00 | 0.00 | 71 | 1012.1 |
| 20260507045606 | 16 | 257 | 0.0 | 0.0 | 0.00 | 0.00 | 0.00 | 71 | 1012.1 |
| 20260507045408 | 16 | 257 | 0.0 | 0.0 | 0.00 | 0.00 | 0.00 | 71 | 1012.1 |
| 20260507045205 | 16 | 257 | 0.0 | 0.0 | 0.00 | 0.00 | 0.00 | 71 | 1012.1 |
| 20260507045103 | 16 | 257 | 0.0 | 0.0 | 0.00 | 0.00 | 0.00 | 71 | 1012.0 |
| 20260507045007 | 16 | 257 | 0.0 | 0.0 | 0.00 | 0.00 | 0.00 | 71 | 1012.1 |
| 20260507044805 | 15 | 257 | 0.0 | 0.0 | 0.00 | 0.00 | 0.00 | 71 | 1012.1 |
| 20260507044606 | 15 | 257 | 0.0 | 4.8 | 0.00 | 0.00 | 0.00 | 71 | 1012.1 |
| 20260507044414 | 15 | 257 | 1.6 | 6.4 | 0.00 | 0.00 | 0.00 | 71 | 1012.0 |
| 20260507044321 | 15 | 259 | 1.6 | 9.7 | 0.00 | 0.00 | 0.00 | 71 | 1012.0 |
| 20260507044251 | 15 | 259 | 1.6 | 9.7 | 0.00 | 0.00 | 0.00 | 71 | 1012.0 |
| 20260507044224 | 15 | 259 | 1.6 | 9.7 | 0.00 | 0.00 | 0.00 | 71 | 1011.9 |
| 20260507043819 | 15 | 260 | 0.0 | 9.7 | 0.00 | 0.00 | 0.00 | 72 | 1012.0 |
| 20260507043406 | 15 | 260 | 0.0 | 9.7 | 0.00 | 0.00 | 0.00 | 72 | 1012.0 |
| 20260507043317 | 15 | 260 | 0.0 | 3.2 | 0.00 | 0.00 | 0.00 | 72 | 1011.9 |
| 20260507043246 | 15 | 260 | 0.0 | 3.2 | 0.00 | 0.00 | 0.00 | 72 | 1011.9 |
| 20260507042807 | 15 | 260 | 0.0 | 0.0 | 0.00 | 0.00 | 0.00 | 72 | 1011.9 |
| 20260507042606 | 15 | 260 | 0.0 | 0.0 | 0.00 | 0.00 | 0.00 | 72 | 1011.9 |
| 20260507042407 | 15 | 260 | 0.0 | 0.0 | 0.00 | 0.00 | 0.00 | 72 | 1011.9 |
| 20260507042206 | 15 | 260 | 0.0 | 0.0 | 0.00 | 0.00 | 0.00 | 72 | 1012.0 |
| 20260507042101 | 15 | 260 | 0.0 | 0.0 | 0.00 | 0.00 | 0.00 | 72 | 1012.0 |
| 20260507042009 | 15 | 260 | 0.0 | 0.0 | 0.00 | 0.00 | 0.00 | 72 | 1011.9 |
| 20260507041807 | 15 | 260 | 0.0 | 6.4 | 0.00 | 0.00 | 0.00 | 72 | 1012.0 |
| 20260507041606 | 15 | 260 | 0.0 | 6.4 | 0.00 | 0.00 | 0.00 | 72 | 1011.9 |
| 20260507041407 | 15 | 261 | 0.0 | 6.4 | 0.00 | 0.00 | 0.00 | 72 | 1012.0 |
| 20260507041207 | 15 | 261 | 0.0 | 6.4 | 0.00 | 0.00 | 0.00 | 72 | 1012.0 |
| 20260507041102 | 15 | 261 | 0.0 | 6.4 | 0.00 | 0.00 | 0.00 | 72 | 1011.9 |
| 20260507041007 | 15 | 261 | 0.0 | 6.4 | 0.00 | 0.00 | 0.00 | 72 | 1011.9 |
| 20260507040807 | 15 | 261 | 0.0 | 4.8 | 0.00 | 0.00 | 0.00 | 72 | 1011.9 |
| 20260507040607 | 15 | 261 | 0.0 | 4.8 | 0.00 | 0.00 | 0.00 | 72 | 1011.9 |
| 20260507040408 | 15 | 261 | 0.0 | 4.8 | 0.00 | 0.00 | 0.00 | 72 | 1011.8 |
| 20260507040207 | 15 | 261 | 0.0 | 6.4 | 0.00 | 0.00 | 0.00 | 72 | 1011.8 |
| 20260507040124 | 15 | 261 | 0.0 | 6.4 | 0.00 | 0.00 | 0.00 | 72 | 1011.8 |
| 20260507040041 | 15 | 261 | 0.0 | 6.4 | 0.00 | 0.00 | 0.00 | 72 | 1011.8 |
| 20260507035948 | 15 | 261 | 1.6 | 6.4 | 0.00 | 0.00 | 0.00 | 72 | 1011.8 |
| 20260507035639 | 15 | 261 | 1.6 | 6.4 | 0.00 | 0.00 | 0.00 | 72 | 1011.7 |
| 20260507035550 | 15 | 261 | 1.6 | 6.4 | 0.00 | 0.00 | 0.00 | 72 | 1011.8 |
| 20260507035457 | 15 | 261 | 1.6 | 6.4 | 0.00 | 0.00 | 0.00 | 73 | 1011.8 |
| 20260507035423 | 15 | 261 | 1.6 | 6.4 | 0.00 | 0.00 | 0.00 | 73 | 1011.7 |
| 20260507035053 | 15 | 236 | 1.6 | 8.0 | 0.00 | 0.00 | 0.00 | 73 | 1011.7 |
| 20260507034954 | 15 | 223 | 1.6 | 8.0 | 0.00 | 0.00 | 0.00 | 73 | 1011.6 |
| 20260507034906 | 15 | 259 | 1.6 | 8.0 | 0.00 | 0.00 | 0.00 | 73 | 1011.6 |
| 20260507034504 | 15 | 259 | 3.2 | 9.7 | 0.00 | 0.00 | 0.00 | 73 | 1011.7 |
| 20260507033618 | 15 | 239 | 1.6 | 9.7 | 0.00 | 0.00 | 0.00 | 73 | 1011.7 |
| 20260507033509 | 15 | 274 | 1.6 | 9.7 | 0.00 | 0.00 | 0.00 | 73 | 1011.6 |
| 20260507033413 | 15 | 243 | 0.0 | 9.7 | 0.00 | 0.00 | 0.00 | 73 | 1011.6 |
| 20260507033344 | 15 | 262 | 0.0 | 6.4 | 0.00 | 0.00 | 0.00 | 73 | 1011.6 |
| 20260507032611 | 15 | 259 | 0.0 | 6.4 | 0.00 | 0.00 | 0.00 | 73 | 1011.5 |
| 20260507032554 | 15 | 259 | 0.0 | 6.4 | 0.00 | 0.00 | 0.00 | 73 | 1011.5 |
| 20260507032353 | 14 | 259 | 1.6 | 6.4 | 0.00 | 0.00 | 0.00 | 73 | 1011.5 |
| 20260507032216 | 14 | 238 | 1.6 | 6.4 | 0.00 | 0.00 | 0.00 | 73 | 1011.6 |
| 20260507032143 | 14 | 237 | 1.6 | 6.4 | 0.00 | 0.00 | 0.00 | 73 | 1011.6 |
| 20260507032055 | 14 | 236 | 1.6 | 6.4 | 0.00 | 0.00 | 0.00 | 73 | 1011.6 |
| 20260507031613 | 14 | 238 | 1.6 | 6.4 | 0.00 | 0.00 | 0.00 | 73 | 1011.6 |
| 20260507031552 | 14 | 234 | 1.6 | 6.4 | 0.00 | 0.00 | 0.00 | 73 | 1011.6 |
| 20260507031349 | 14 | 248 | 1.6 | 6.4 | 0.00 | 0.00 | 0.00 | 73 | 1011.5 |
| 20260507031151 | 14 | 260 | 1.6 | 9.7 | 0.00 | 0.00 | 0.00 | 73 | 1011.5 |
| 20260507031103 | 14 | 259 | 1.6 | 9.7 | 0.00 | 0.00 | 0.00 | 73 | 1011.5 |
| 20260507030949 | 14 | 259 | 1.6 | 9.7 | 0.00 | 0.00 | 0.00 | 73 | 1011.5 |
| 20260507030746 | 14 | 223 | 1.6 | 9.7 | 0.00 | 0.00 | 0.00 | 73 | 1011.6 |
| 20260507030601 | 14 | 263 | 3.2 | 9.7 | 0.00 | 0.00 | 0.00 | 73 | 1011.5 |
| 20260507030543 | 14 | 263 | 3.2 | 9.7 | 0.00 | 0.00 | 0.00 | 73 | 1011.5 |
| 20260507030343 | 14 | 255 | 3.2 | 9.7 | 0.00 | 0.00 | 0.00 | 73 | 1011.6 |
| 20260507030143 | 14 | 257 | 4.8 | 9.7 | 0.00 | 0.00 | 0.00 | 73 | 1011.5 |
| 20260507030101 | 14 | 252 | 4.8 | 9.7 | 0.00 | 0.00 | 0.00 | 73 | 1011.5 |
| 20260507025957 | 14 | 255 | 4.8 | 9.7 | 0.00 | 0.00 | 0.00 | 73 | 1011.5 |
| 20260507025856 | 14 | 246 | 4.8 | 9.7 | 0.00 | 0.00 | 0.00 | 73 | 1011.5 |
| 20260507025541 | 14 | 263 | 4.8 | 11.3 | 0.00 | 0.00 | 0.00 | 73 | 1011.5 |
| 20260507025341 | 14 | 266 | 4.8 | 11.3 | 0.00 | 0.00 | 0.00 | 73 | 1011.5 |
| 20260507025142 | 14 | 263 | 4.8 | 11.3 | 0.00 | 0.00 | 0.00 | 73 | 1011.4 |
| 20260507025101 | 14 | 256 | 4.8 | 11.3 | 0.00 | 0.00 | 0.00 | 73 | 1011.5 |
| 20260507024943 | 14 | 255 | 4.8 | 11.3 | 0.00 | 0.00 | 0.00 | 72 | 1011.4 |
| 20260507024814 | 15 | 262 | 4.8 | 11.3 | 0.00 | 0.00 | 0.00 | 72 | 1011.5 |
| 20260507024732 | 15 | 255 | 3.2 | 11.3 | 0.00 | 0.00 | 0.00 | 72 | 1011.4 |
| 20260507024712 | 15 | 260 | 3.2 | 11.3 | 0.00 | 0.00 | 0.00 | 72 | 1011.4 |
| 20260507024153 | 15 | 257 | 3.2 | 11.3 | 0.00 | 0.00 | 0.00 | 72 | 1011.4 |
| 20260507024133 | 15 | 258 | 3.2 | 11.3 | 0.00 | 0.00 | 0.00 | 72 | 1011.5 |
| 20260507024047 | 15 | 246 | 3.2 | 11.3 | 0.00 | 0.00 | 0.00 | 72 | 1011.4 |
| 20260507023605 | 15 | 253 | 1.6 | 8.0 | 0.00 | 0.00 | 0.00 | 72 | 1011.4 |
| 20260507023536 | 15 | 252 | 1.6 | 8.0 | 0.00 | 0.00 | 0.00 | 71 | 1011.4 |
| 20260507023335 | 15 | 244 | 1.6 | 8.0 | 0.00 | 0.00 | 0.00 | 71 | 1011.3 |
| 20260507023136 | 15 | 230 | 1.6 | 8.0 | 0.00 | 0.00 | 0.00 | 71 | 1011.3 |
| 20260507023103 | 15 | 230 | 1.6 | 8.0 | 0.00 | 0.00 | 0.00 | 71 | 1011.4 |
| 20260507022934 | 15 | 243 | 1.6 | 8.0 | 0.00 | 0.00 | 0.00 | 71 | 1011.4 |
| 20260507022737 | 15 | 244 | 1.6 | 6.4 | 0.00 | 0.00 | 0.00 | 71 | 1011.4 |
| 20260507022656 | 15 | 232 | 1.6 | 6.4 | 0.00 | 0.00 | 0.00 | 71 | 1011.3 |
| 20260507022632 | 15 | 232 | 1.6 | 6.4 | 0.00 | 0.00 | 0.00 | 71 | 1011.3 |
| 20260507022543 | 15 | 232 | 1.6 | 6.4 | 0.00 | 0.00 | 0.00 | 71 | 1011.3 |
| 20260507022439 | 15 | 232 | 1.6 | 6.4 | 0.00 | 0.00 | 0.00 | 71 | 1011.4 |
| 20260507022353 | 15 | 232 | 1.6 | 6.4 | 0.00 | 0.00 | 0.00 | 71 | 1011.4 |
| 20260507021335 | 15 | 235 | 0.0 | 4.8 | 0.00 | 0.00 | 0.00 | 71 | 1011.4 |
| 20260507021135 | 15 | 235 | 0.0 | 4.8 | 0.00 | 0.00 | 0.00 | 71 | 1011.4 |
| 20260507021103 | 15 | 235 | 0.0 | 4.8 | 0.00 | 0.00 | 0.00 | 71 | 1011.3 |
| 20260507020934 | 15 | 235 | 0.0 | 1.6 | 0.00 | 0.00 | 0.00 | 71 | 1011.4 |
| 20260507020734 | 15 | 235 | 0.0 | 1.6 | 0.00 | 0.00 | 0.00 | 71 | 1011.4 |
| 20260507020606 | 15 | 235 | 0.0 | 1.6 | 0.00 | 0.00 | 0.00 | 71 | 1011.4 |
| 20260507020535 | 15 | 235 | 0.0 | 1.6 | 0.00 | 0.00 | 0.00 | 71 | 1011.4 |
| 20260507020444 | 15 | 235 | 0.0 | 4.8 | 0.00 | 0.00 | 0.00 | 71 | 1011.3 |
| 20260507020353 | 15 | 235 | 0.0 | 4.8 | 0.00 | 0.00 | 0.00 | 72 | 1011.4 |
| 20260507020042 | 15 | 235 | 0.0 | 4.8 | 0.00 | 0.00 | 0.00 | 72 | 1011.4 |
| 20260507015601 | 15 | 235 | 0.0 | 4.8 | 0.00 | 0.00 | 0.00 | 72 | 1011.4 |
| 20260507015527 | 15 | 235 | 0.0 | 4.8 | 0.00 | 0.00 | 0.00 | 72 | 1011.4 |
| 20260507015328 | 15 | 235 | 1.6 | 8.0 | 0.00 | 0.00 | 0.00 | 72 | 1011.3 |
| 20260507015222 | 15 | 235 | 1.6 | 8.0 | 0.00 | 0.00 | 0.00 | 72 | 1011.3 |
| 20260507014720 | 15 | 235 | 1.6 | 8.0 | 0.00 | 0.00 | 0.00 | 72 | 1011.3 |
| 20260507014603 | 15 | 235 | 1.6 | 8.0 | 0.00 | 0.00 | 0.00 | 72 | 1011.3 |
| 20260507014525 | 15 | 235 | 1.6 | 8.0 | 0.00 | 0.00 | 0.00 | 72 | 1011.3 |
| 20260507014433 | 15 | 241 | 0.0 | 4.8 | 0.00 | 0.00 | 0.00 | 72 | 1011.3 |
| 20260507014109 | 15 | 242 | 0.0 | 4.8 | 0.00 | 0.00 | 0.00 | 72 | 1011.3 |
| 20260507014020 | 15 | 245 | 0.0 | 4.8 | 0.00 | 0.00 | 0.00 | 73 | 1011.3 |
| 20260507013602 | 15 | 283 | 0.0 | 0.0 | 0.00 | 0.00 | 0.00 | 73 | 1011.2 |
| 20260507013513 | 15 | 283 | 0.0 | 0.0 | 0.00 | 0.00 | 0.00 | 73 | 1011.2 |
| 20260507013416 | 15 | 283 | 0.0 | 0.0 | 0.00 | 0.00 | 0.00 | 72 | 1011.2 |
| 20260507013327 | 15 | 268 | 0.0 | 3.2 | 0.00 | 0.00 | 0.00 | 72 | 1011.2 |
| 20260507012916 | 15 | 267 | 0.0 | 3.2 | 0.00 | 0.00 | 0.00 | 72 | 1011.2 |
| 20260507012714 | 15 | 267 | 0.0 | 6.4 | 0.00 | 0.00 | 0.00 | 72 | 1011.3 |
| 20260507012603 | 15 | 265 | 0.0 | 6.4 | 0.00 | 0.00 | 0.00 | 72 | 1011.2 |
| 20260507012516 | 15 | 265 | 0.0 | 6.4 | 0.00 | 0.00 | 0.00 | 72 | 1011.2 |
| 20260507012416 | 15 | 265 | 1.6 | 6.4 | 0.00 | 0.00 | 0.00 | 72 | 1011.2 |
| 20260507012101 | 15 | 238 | 1.6 | 6.4 | 0.00 | 0.00 | 0.00 | 72 | 1011.2 |
| 20260507011938 | 15 | 237 | 1.6 | 6.4 | 0.00 | 0.00 | 0.00 | 72 | 1011.2 |
| 20260507011841 | 15 | 242 | 1.6 | 8.0 | 0.00 | 0.00 | 0.00 | 72 | 1011.3 |
| 20260507011508 | 15 | 242 | 1.6 | 8.0 | 0.00 | 0.00 | 0.00 | 72 | 1011.3 |
| 20260507011308 | 15 | 235 | 1.6 | 8.0 | 0.00 | 0.00 | 0.00 | 72 | 1011.3 |
| 20260507011111 | 15 | 235 | 0.0 | 8.0 | 0.00 | 0.00 | 0.00 | 72 | 1011.3 |
| 20260507011103 | 15 | 235 | 1.6 | 8.0 | 0.00 | 0.00 | 0.00 | 72 | 1011.3 |
| 20260507010910 | 15 | 239 | 1.6 | 8.0 | 0.00 | 0.00 | 0.00 | 72 | 1011.3 |
| 20260507010706 | 15 | 253 | 3.2 | 8.0 | 0.00 | 0.00 | 0.00 | 72 | 1011.2 |
| 20260507010603 | 15 | 253 | 3.2 | 11.3 | 0.00 | 0.00 | 0.00 | 72 | 1011.2 |
| 20260507010507 | 15 | 226 | 3.2 | 11.3 | 0.00 | 0.00 | 0.00 | 72 | 1011.3 |
| 20260507010412 | 15 | 225 | 3.2 | 11.3 | 0.00 | 0.00 | 0.00 | 72 | 1011.2 |
| 20260507010323 | 15 | 225 | 3.2 | 11.3 | 0.00 | 0.00 | 0.00 | 72 | 1011.2 |
| 20260507005907 | 15 | 239 | 1.6 | 11.3 | 0.00 | 0.00 | 0.00 | 72 | 1011.2 |
| 20260507005706 | 15 | 232 | 1.6 | 11.3 | 0.00 | 0.00 | 0.00 | 72 | 1011.2 |
| 20260507005601 | 15 | 212 | 1.6 | 6.4 | 0.00 | 0.00 | 0.00 | 72 | 1011.2 |
| 20260507005506 | 15 | 232 | 1.6 | 6.4 | 0.00 | 0.00 | 0.00 | 72 | 1011.2 |
| 20260507005307 | 15 | 240 | 0.0 | 6.4 | 0.00 | 0.00 | 0.00 | 72 | 1011.2 |
| 20260507005120 | 15 | 218 | 0.0 | 4.8 | 0.00 | 0.00 | 0.00 | 72 | 1011.3 |
| 20260507005105 | 15 | 218 | 0.0 | 4.8 | 0.00 | 0.00 | 0.00 | 72 | 1011.3 |
| 20260507004903 | 15 | 217 | 0.0 | 6.4 | 0.00 | 0.00 | 0.00 | 72 | 1011.3 |
| 20260507004701 | 15 | 217 | 0.0 | 6.4 | 0.00 | 0.00 | 0.00 | 72 | 1011.3 |
| 20260507004604 | 15 | 217 | 0.0 | 6.4 | 0.00 | 0.00 | 0.00 | 72 | 1011.2 |
| 20260507004508 | 15 | 211 | 0.0 | 6.4 | 0.00 | 0.00 | 0.00 | 72 | 1011.3 |
| 20260507004333 | 15 | 292 | 0.0 | 6.4 | 0.00 | 0.00 | 0.00 | 72 | 1011.2 |
| 20260507004249 | 15 | 292 | 0.0 | 6.4 | 0.00 | 0.00 | 0.00 | 72 | 1011.2 |
| 20260507004240 | 15 | 292 | 0.0 | 6.4 | 0.00 | 0.00 | 0.00 | 72 | 1011.2 |
| 20260507003806 | 15 | 229 | 1.6 | 6.4 | 0.00 | 0.00 | 0.00 | 72 | 1011.2 |
| 20260507003744 | 15 | 215 | 1.6 | 6.4 | 0.00 | 0.00 | 0.00 | 72 | 1011.1 |
| 20260507003249 | 15 | 215 | 1.6 | 8.0 | 0.00 | 0.00 | 0.00 | 72 | 1011.2 |
| 20260507003103 | 15 | 215 | 1.6 | 8.0 | 0.00 | 0.00 | 0.00 | 72 | 1011.1 |
| 20260507003046 | 15 | 215 | 1.6 | 8.0 | 0.00 | 0.00 | 0.00 | 72 | 1011.1 |
| 20260507002847 | 15 | 215 | 1.6 | 8.0 | 0.00 | 0.00 | 0.00 | 72 | 1011.1 |
| 20260507002646 | 15 | 231 | 1.6 | 8.0 | 0.00 | 0.00 | 0.00 | 72 | 1011.0 |
| 20260507002604 | 15 | 231 | 0.0 | 8.0 | 0.00 | 0.00 | 0.00 | 72 | 1011.2 |
| 20260507002447 | 15 | 232 | 0.0 | 4.8 | 0.00 | 0.00 | 0.00 | 72 | 1011.1 |
| 20260507002252 | 15 | 253 | 0.0 | 1.6 | 0.00 | 0.00 | 0.00 | 72 | 1011.1 |
| 20260507002210 | 15 | 250 | 0.0 | 1.6 | 0.00 | 0.00 | 0.00 | 72 | 1011.1 |
| 20260507002158 | 15 | 251 | 0.0 | 1.6 | 0.00 | 0.00 | 0.00 | 72 | 1011.1 |
| 20260507001641 | 15 | 259 | 0.0 | 1.6 | 0.00 | 0.00 | 0.00 | 72 | 1011.1 |
| 20260507001603 | 15 | 259 | 0.0 | 1.6 | 0.00 | 0.00 | 0.00 | 72 | 1011.1 |
| 20260507001443 | 15 | 259 | 0.0 | 11.3 | 0.00 | 0.00 | 0.00 | 73 | 1011.1 |
| 20260507001249 | 15 | 259 | 0.0 | 11.3 | 0.00 | 0.00 | 0.00 | 72 | 1011.1 |
| 20260507001208 | 15 | 259 | 1.6 | 11.3 | 0.00 | 0.00 | 0.00 | 73 | 1011.2 |
| 20260507001152 | 15 | 259 | 1.6 | 11.3 | 0.00 | 0.00 | 0.00 | 73 | 1011.2 |
| 20260507000726 | 15 | 259 | 1.6 | 11.3 | 0.00 | 0.00 | 0.00 | 73 | 1011.1 |
| 20260507000708 | 15 | 206 | 1.6 | 11.3 | 0.00 | 0.00 | 0.00 | 73 | 1011.2 |
| 20260507000632 | 15 | 205 | 3.2 | 11.3 | 0.00 | 0.00 | 0.00 | 73 | 1011.2 |
| 20260507000539 | 15 | 192 | 3.2 | 11.3 | 0.00 | 0.00 | 0.00 | 74 | 1011.3 |
| 20260507000459 | 15 | 213 | 3.2 | 11.3 | 0.00 | 0.00 | 0.00 | 74 | 1011.3 |
| 20260506235831 | 15 | 275 | 1.6 | 11.3 | 0.00 | 0.00 | 0.00 | 74 | 1011.2 |
| 20260506235437 | 15 | 236 | 1.6 | 8.0 | 0.00 | 0.00 | 0.00 | 74 | 1011.1 |
| 20260506235236 | 15 | 242 | 0.0 | 6.4 | 0.00 | 0.00 | 0.00 | 74 | 1011.1 |
| 20260506235101 | 15 | 288 | 0.0 | 6.4 | 0.00 | 0.00 | 0.00 | 73 | 1011.1 |
| 20260506235039 | 15 | 292 | 0.0 | 3.2 | 0.00 | 0.00 | 0.00 | 73 | 1011.1 |
| 20260506234835 | 15 | 292 | 0.0 | 3.2 | 0.00 | 0.00 | 0.00 | 73 | 1011.0 |
| 20260506234636 | 15 | 297 | 0.0 | 3.2 | 0.00 | 0.00 | 0.00 | 73 | 1011.0 |
| 20260506234604 | 15 | 298 | 0.0 | 3.2 | 0.00 | 0.00 | 0.00 | 73 | 1011.0 |
| 20260506234435 | 15 | 320 | 0.0 | 1.6 | 0.00 | 0.00 | 0.00 | 73 | 1011.0 |
| 20260506234235 | 15 | 321 | 0.0 | 0.0 | 0.00 | 0.00 | 0.00 | 72 | 1011.0 |
| 20260506234104 | 15 | 321 | 0.0 | 0.0 | 0.00 | 0.00 | 0.00 | 72 | 1011.0 |
| 20260506234042 | 15 | 321 | 0.0 | 0.0 | 0.00 | 0.00 | 0.00 | 73 | 1011.0 |
| 20260506233833 | 15 | 321 | 0.0 | 0.0 | 0.00 | 0.00 | 0.00 | 72 | 1011.0 |
| 20260506233634 | 16 | 321 | 0.0 | 3.2 | 0.00 | 0.00 | 0.00 | 72 | 1011.0 |
| 20260506233601 | 16 | 321 | 0.0 | 3.2 | 0.00 | 0.00 | 0.00 | 73 | 1010.9 |
| 20260506233433 | 16 | 321 | 0.0 | 3.2 | 0.00 | 0.00 | 0.00 | 73 | 1011.0 |
| 20260506233335 | 16 | 321 | 0.0 | 6.4 | 0.00 | 0.00 | 0.00 | 72 | 1011.1 |
| 20260506233258 | 16 | 221 | 0.0 | 6.4 | 0.00 | 0.00 | 0.00 | 72 | 1011.0 |
| 20260506233236 | 16 | 221 | 0.0 | 6.4 | 0.00 | 0.00 | 0.00 | 72 | 1011.0 |
| 20260506232602 | 16 | 225 | 0.0 | 6.4 | 0.00 | 0.00 | 0.00 | 72 | 1011.1 |
| 20260506232428 | 16 | 225 | 0.0 | 6.4 | 0.00 | 0.00 | 0.00 | 73 | 1011.1 |
| 20260506232225 | 16 | 235 | 0.0 | 1.6 | 0.00 | 0.00 | 0.00 | 73 | 1011.1 |
| 20260506232102 | 16 | 236 | 0.0 | 1.6 | 0.00 | 0.00 | 0.00 | 73 | 1011.0 |
| 20260506232024 | 16 | 236 | 0.0 | 1.6 | 0.00 | 0.00 | 0.00 | 73 | 1011.0 |